| time (UTC) | temp C | wind direction | speed KPH | gust KPH | rain 1hr cm | rain 24hr cm | rain mn cm | humidity % | barometer mb |
| 20260504192557 | 27 | 102 | 0.0 | 1.6 | 0.00 | 0.00 | 0.00 | 74 | 1005.3 |
| 20260504192456 | 27 | 100 | 0.0 | 1.6 | 0.00 | 0.00 | 0.00 | 74 | 1005.3 |
| 20260504192357 | 27 | 210 | 1.6 | 1.6 | 0.00 | 0.00 | 0.00 | 74 | 1005.3 |
| 20260504192256 | 27 | 140 | 1.6 | 1.6 | 0.00 | 0.00 | 0.00 | 74 | 1005.4 |
| 20260504192156 | 27 | 133 | 0.0 | 3.2 | 0.00 | 0.00 | 0.00 | 74 | 1005.4 |
| 20260504192056 | 27 | 289 | 0.0 | 3.2 | 0.00 | 0.00 | 0.00 | 74 | 1005.4 |
| 20260504191955 | 27 | 288 | 0.0 | 3.2 | 0.00 | 0.00 | 0.00 | 75 | 1005.3 |
| 20260504191857 | 27 | 141 | 0.0 | 3.2 | 0.00 | 0.00 | 0.00 | 75 | 1005.3 |
| 20260504191757 | 27 | 183 | 0.0 | 3.2 | 0.00 | 0.00 | 0.00 | 75 | 1005.3 |
| 20260504191657 | 27 | 329 | 0.0 | 3.2 | 0.00 | 0.00 | 0.00 | 75 | 1005.3 |
| 20260504191557 | 27 | 271 | 0.0 | 3.2 | 0.00 | 0.00 | 0.00 | 75 | 1005.3 |
| 20260504191457 | 27 | 354 | 0.0 | 3.2 | 0.00 | 0.00 | 0.00 | 75 | 1005.4 |
| 20260504191356 | 27 | 114 | 1.6 | 3.2 | 0.00 | 0.00 | 0.00 | 74 | 1005.4 |
| 20260504191257 | 27 | 99 | 0.0 | 3.2 | 0.00 | 0.00 | 0.00 | 74 | 1005.4 |
| 20260504191157 | 27 | 178 | 1.6 | 3.2 | 0.00 | 0.00 | 0.00 | 74 | 1005.4 |
| 20260504191056 | 27 | 197 | 1.6 | 3.2 | 0.00 | 0.00 | 0.00 | 74 | 1005.5 |
| 20260504190957 | 27 | 212 | 0.0 | 3.2 | 0.00 | 0.00 | 0.00 | 74 | 1005.5 |
| 20260504190855 | 27 | 212 | 0.0 | 3.2 | 0.00 | 0.00 | 0.00 | 74 | 1005.6 |
| 20260504190756 | 27 | 212 | 0.0 | 3.2 | 0.00 | 0.00 | 0.00 | 74 | 1005.5 |
| 20260504190657 | 27 | 175 | 0.0 | 3.2 | 0.00 | 0.00 | 0.00 | 74 | 1005.6 |
| 20260504190557 | 27 | 165 | 1.6 | 3.2 | 0.00 | 0.00 | 0.00 | 74 | 1005.7 |
| 20260504190455 | 27 | 165 | 1.6 | 3.2 | 0.00 | 0.00 | 0.00 | 74 | 1005.7 |
| 20260504190355 | 27 | 279 | 0.0 | 3.2 | 0.00 | 0.00 | 0.00 | 74 | 1005.7 |
| 20260504190255 | 27 | 183 | 0.0 | 1.6 | 0.00 | 0.00 | 0.00 | 74 | 1005.7 |
| 20260504190155 | 27 | 183 | 0.0 | 3.2 | 0.00 | 0.00 | 0.00 | 74 | 1005.8 |
| 20260504190055 | 27 | 183 | 0.0 | 3.2 | 0.00 | 0.00 | 0.00 | 74 | 1005.8 |
| 20260504185955 | 27 | 183 | 0.0 | 3.2 | 0.00 | 0.00 | 0.00 | 73 | 1005.8 |
| 20260504185856 | 27 | 182 | 0.0 | 3.2 | 0.00 | 0.00 | 0.00 | 73 | 1005.9 |
| 20260504185755 | 27 | 182 | 0.0 | 3.2 | 0.00 | 0.00 | 0.00 | 74 | 1005.8 |
| 20260504185657 | 27 | 206 | 0.0 | 3.2 | 0.00 | 0.00 | 0.00 | 74 | 1005.9 |
| 20260504185555 | 27 | 204 | 0.0 | 3.2 | 0.00 | 0.00 | 0.00 | 74 | 1005.9 |
| 20260504185456 | 27 | 197 | 0.0 | 4.8 | 0.00 | 0.00 | 0.00 | 74 | 1005.8 |
| 20260504185356 | 27 | 197 | 0.0 | 4.8 | 0.00 | 0.00 | 0.00 | 74 | 1005.9 |
| 20260504185256 | 27 | 186 | 1.6 | 4.8 | 0.00 | 0.00 | 0.00 | 74 | 1005.9 |
| 20260504185156 | 27 | 188 | 1.6 | 6.4 | 0.00 | 0.00 | 0.00 | 74 | 1005.8 |
| 20260504185055 | 27 | 197 | 1.6 | 6.4 | 0.00 | 0.00 | 0.00 | 74 | 1005.8 |
| 20260504184955 | 27 | 227 | 0.0 | 6.4 | 0.00 | 0.00 | 0.00 | 74 | 1005.8 |
| 20260504184854 | 27 | 228 | 0.0 | 6.4 | 0.00 | 0.00 | 0.00 | 74 | 1005.8 |
| 20260504184756 | 27 | 228 | 1.6 | 6.4 | 0.00 | 0.00 | 0.00 | 73 | 1005.9 |
| 20260504184655 | 27 | 220 | 1.6 | 6.4 | 0.00 | 0.00 | 0.00 | 73 | 1005.8 |
| 20260504184556 | 27 | 214 | 1.6 | 6.4 | 0.00 | 0.00 | 0.00 | 73 | 1005.9 |
| 20260504184456 | 27 | 262 | 1.6 | 6.4 | 0.00 | 0.00 | 0.00 | 73 | 1005.9 |
| 20260504184356 | 27 | 262 | 3.2 | 6.4 | 0.00 | 0.00 | 0.00 | 74 | 1005.9 |
| 20260504184255 | 27 | 310 | 1.6 | 6.4 | 0.00 | 0.00 | 0.00 | 74 | 1005.9 |
| 20260504184155 | 27 | 226 | 0.0 | 6.4 | 0.00 | 0.00 | 0.00 | 74 | 1005.9 |
| 20260504184056 | 27 | 83 | 0.0 | 6.4 | 0.00 | 0.00 | 0.00 | 74 | 1005.9 |
| 20260504183957 | 27 | 85 | 1.6 | 6.4 | 0.00 | 0.00 | 0.00 | 73 | 1006.0 |
| 20260504183854 | 27 | 83 | 1.6 | 6.4 | 0.00 | 0.00 | 0.00 | 73 | 1006.0 |
| 20260504183754 | 27 | 131 | 3.2 | 6.4 | 0.00 | 0.00 | 0.00 | 73 | 1006.1 |
| 20260504183654 | 27 | 224 | 3.2 | 6.4 | 0.00 | 0.00 | 0.00 | 73 | 1006.0 |
| 20260504183555 | 27 | 190 | 3.2 | 4.8 | 0.00 | 0.00 | 0.00 | 74 | 1006.0 |
| 20260504183456 | 27 | 317 | 3.2 | 4.8 | 0.00 | 0.00 | 0.00 | 74 | 1006.1 |
| 20260504183356 | 27 | 169 | 3.2 | 6.4 | 0.00 | 0.00 | 0.00 | 74 | 1006.0 |
| 20260504183256 | 27 | 159 | 1.6 | 8.0 | 0.00 | 0.00 | 0.00 | 72 | 1006.1 |
| 20260504183155 | 27 | 116 | 1.6 | 8.0 | 0.00 | 0.00 | 0.00 | 72 | 1006.0 |
| 20260504183056 | 27 | 283 | 1.6 | 8.0 | 0.00 | 0.00 | 0.00 | 72 | 1006.1 |
| 20260504182954 | 27 | 340 | 1.6 | 8.0 | 0.00 | 0.00 | 0.00 | 72 | 1006.1 |
| 20260504182856 | 27 | 252 | 0.0 | 8.0 | 0.00 | 0.00 | 0.00 | 73 | 1006.1 |
| 20260504182755 | 27 | 244 | 1.6 | 8.0 | 0.00 | 0.00 | 0.00 | 73 | 1006.1 |
| 20260504182654 | 27 | 303 | 1.6 | 8.0 | 0.00 | 0.00 | 0.00 | 73 | 1006.1 |
| 20260504182555 | 27 | 0 | 3.2 | 8.0 | 0.00 | 0.00 | 0.00 | 73 | 1006.1 |
| 20260504182454 | 27 | 0 | 3.2 | 8.0 | 0.00 | 0.00 | 0.00 | 73 | 1006.1 |
| 20260504182354 | 27 | 144 | 3.2 | 9.7 | 0.00 | 0.00 | 0.00 | 73 | 1006.1 |
| 20260504182254 | 27 | 243 | 3.2 | 9.7 | 0.00 | 0.00 | 0.00 | 73 | 1006.1 |
| 20260504182155 | 27 | 243 | 3.2 | 9.7 | 0.00 | 0.00 | 0.00 | 73 | 1006.2 |
| 20260504182054 | 27 | 296 | 1.6 | 9.7 | 0.00 | 0.00 | 0.00 | 73 | 1006.1 |
| 20260504181954 | 27 | 300 | 3.2 | 9.7 | 0.00 | 0.00 | 0.00 | 73 | 1006.1 |
| 20260504181855 | 27 | 199 | 3.2 | 9.7 | 0.00 | 0.00 | 0.00 | 72 | 1006.2 |
| 20260504181757 | 27 | 350 | 1.6 | 9.7 | 0.00 | 0.00 | 0.00 | 71 | 1006.2 |
| 20260504181654 | 27 | 350 | 1.6 | 9.7 | 0.00 | 0.00 | 0.00 | 71 | 1006.3 |
| 20260504181554 | 27 | 282 | 3.2 | 9.7 | 0.00 | 0.00 | 0.00 | 71 | 1006.3 |
| 20260504181454 | 27 | 282 | 3.2 | 9.7 | 0.00 | 0.00 | 0.00 | 72 | 1006.3 |
| 20260504181354 | 27 | 299 | 3.2 | 6.4 | 0.00 | 0.00 | 0.00 | 72 | 1006.1 |
| 20260504181255 | 27 | 268 | 3.2 | 6.4 | 0.00 | 0.00 | 0.00 | 72 | 1006.2 |
| 20260504181155 | 27 | 190 | 3.2 | 6.4 | 0.00 | 0.00 | 0.00 | 72 | 1006.2 |
| 20260504181055 | 27 | 134 | 1.6 | 6.4 | 0.00 | 0.00 | 0.00 | 72 | 1006.1 |
| 20260504180954 | 27 | 223 | 1.6 | 6.4 | 0.00 | 0.00 | 0.00 | 72 | 1006.1 |
| 20260504180854 | 27 | 89 | 1.6 | 6.4 | 0.00 | 0.00 | 0.00 | 72 | 1006.2 |
| 20260504180756 | 27 | 250 | 1.6 | 4.8 | 0.00 | 0.00 | 0.00 | 71 | 1006.1 |
| 20260504180656 | 27 | 179 | 3.2 | 4.8 | 0.00 | 0.00 | 0.00 | 71 | 1006.2 |
| 20260504180555 | 27 | 6 | 3.2 | 4.8 | 0.00 | 0.00 | 0.00 | 71 | 1006.1 |
| 20260504180454 | 27 | 216 | 3.2 | 4.8 | 0.00 | 0.00 | 0.00 | 71 | 1006.2 |
| 20260504180356 | 27 | 281 | 1.6 | 4.8 | 0.00 | 0.00 | 0.00 | 72 | 1006.2 |
| 20260504180255 | 27 | 293 | 1.6 | 4.8 | 0.00 | 0.00 | 0.00 | 73 | 1006.3 |
| 20260504180155 | 27 | 251 | 1.6 | 4.8 | 0.00 | 0.00 | 0.00 | 73 | 1006.3 |
| 20260504180055 | 27 | 235 | 1.6 | 4.8 | 0.00 | 0.00 | 0.00 | 73 | 1006.3 |
| 20260504175953 | 27 | 264 | 0.0 | 4.8 | 0.00 | 0.00 | 0.00 | 73 | 1006.4 |
| 20260504175854 | 27 | 0 | 0.0 | 4.8 | 0.00 | 0.00 | 0.00 | 71 | 1006.4 |
| 20260504175755 | 27 | 0 | 1.6 | 4.8 | 0.00 | 0.00 | 0.00 | 71 | 1006.4 |
| 20260504175655 | 27 | 286 | 1.6 | 4.8 | 0.00 | 0.00 | 0.00 | 71 | 1006.5 |
| 20260504175554 | 27 | 282 | 3.2 | 4.8 | 0.00 | 0.00 | 0.00 | 72 | 1006.4 |
| 20260504175455 | 27 | 292 | 1.6 | 4.8 | 0.00 | 0.00 | 0.00 | 72 | 1006.6 |
| 20260504175355 | 27 | 171 | 1.6 | 4.8 | 0.00 | 0.00 | 0.00 | 71 | 1006.6 |
| 20260504175253 | 27 | 243 | 3.2 | 6.4 | 0.00 | 0.00 | 0.00 | 71 | 1006.5 |
| 20260504175155 | 27 | 185 | 3.2 | 6.4 | 0.00 | 0.00 | 0.00 | 71 | 1006.5 |
| 20260504175053 | 27 | 283 | 3.2 | 6.4 | 0.00 | 0.00 | 0.00 | 71 | 1006.5 |
| 20260504174955 | 27 | 0 | 3.2 | 6.4 | 0.00 | 0.00 | 0.00 | 73 | 1006.5 |
| 20260504174853 | 27 | 168 | 1.6 | 8.0 | 0.00 | 0.00 | 0.00 | 73 | 1006.5 |
| 20260504174753 | 27 | 140 | 1.6 | 8.0 | 0.00 | 0.00 | 0.00 | 73 | 1006.6 |
| 20260504174654 | 27 | 255 | 1.6 | 8.0 | 0.00 | 0.00 | 0.00 | 72 | 1006.6 |
| 20260504174555 | 27 | 257 | 1.6 | 8.0 | 0.00 | 0.00 | 0.00 | 72 | 1006.5 |
| 20260504174454 | 27 | 269 | 3.2 | 8.0 | 0.00 | 0.00 | 0.00 | 72 | 1006.5 |
| 20260504174353 | 27 | 313 | 3.2 | 8.0 | 0.00 | 0.00 | 0.00 | 72 | 1006.5 |
| 20260504174255 | 27 | 282 | 1.6 | 8.0 | 0.00 | 0.00 | 0.00 | 72 | 1006.6 |
| 20260504174153 | 27 | 314 | 3.2 | 8.0 | 0.00 | 0.00 | 0.00 | 72 | 1006.6 |
| 20260504174053 | 27 | 279 | 4.8 | 8.0 | 0.00 | 0.00 | 0.00 | 72 | 1006.5 |
| 20260504173955 | 27 | 227 | 3.2 | 8.0 | 0.00 | 0.00 | 0.00 | 72 | 1006.6 |
| 20260504173855 | 27 | 203 | 0.0 | 6.4 | 0.00 | 0.00 | 0.00 | 72 | 1006.6 |
| 20260504173753 | 27 | 169 | 1.6 | 6.4 | 0.00 | 0.00 | 0.00 | 73 | 1006.5 |
| 20260504173654 | 27 | 151 | 3.2 | 6.4 | 0.00 | 0.00 | 0.00 | 73 | 1006.5 |
| 20260504173553 | 27 | 309 | 3.2 | 6.4 | 0.00 | 0.00 | 0.00 | 73 | 1006.5 |
| 20260504173454 | 27 | 240 | 1.6 | 6.4 | 0.00 | 0.00 | 0.00 | 73 | 1006.5 |
| 20260504173354 | 27 | 251 | 0.0 | 6.4 | 0.00 | 0.00 | 0.00 | 73 | 1006.5 |
| 20260504173253 | 27 | 251 | 1.6 | 6.4 | 0.00 | 0.00 | 0.00 | 73 | 1006.6 |
| 20260504173153 | 27 | 251 | 3.2 | 6.4 | 0.00 | 0.00 | 0.00 | 74 | 1006.5 |
| 20260504173054 | 27 | 223 | 1.6 | 6.4 | 0.00 | 0.00 | 0.00 | 74 | 1006.6 |
| 20260504172953 | 27 | 166 | 1.6 | 3.2 | 0.00 | 0.00 | 0.00 | 74 | 1006.6 |
| 20260504172853 | 27 | 245 | 1.6 | 8.0 | 0.00 | 0.00 | 0.00 | 74 | 1006.6 |
| 20260504172753 | 26 | 209 | 1.6 | 8.0 | 0.00 | 0.00 | 0.00 | 74 | 1006.7 |
| 20260504172652 | 26 | 89 | 1.6 | 8.0 | 0.00 | 0.00 | 0.00 | 74 | 1006.7 |
| 20260504172553 | 26 | 142 | 1.6 | 8.0 | 0.00 | 0.00 | 0.00 | 73 | 1006.7 |
| 20260504172454 | 26 | 141 | 1.6 | 8.0 | 0.00 | 0.00 | 0.00 | 73 | 1006.8 |
| 20260504172353 | 26 | 258 | 1.6 | 8.0 | 0.00 | 0.00 | 0.00 | 73 | 1006.8 |
| 20260504172253 | 26 | 274 | 1.6 | 8.0 | 0.00 | 0.00 | 0.00 | 74 | 1006.7 |
| 20260504172154 | 26 | 140 | 1.6 | 8.0 | 0.00 | 0.00 | 0.00 | 73 | 1006.8 |
| 20260504172058 | 26 | 140 | 3.2 | 8.0 | 0.00 | 0.00 | 0.00 | 73 | 1006.7 |
| 20260504171952 | 26 | 155 | 3.2 | 8.0 | 0.00 | 0.00 | 0.00 | 73 | 1006.6 |
| 20260504171854 | 26 | 133 | 3.2 | 6.4 | 0.00 | 0.00 | 0.00 | 73 | 1006.7 |
| 20260504171754 | 26 | 125 | 3.2 | 6.4 | 0.00 | 0.00 | 0.00 | 73 | 1006.7 |
| 20260504171653 | 26 | 54 | 1.6 | 3.2 | 0.00 | 0.00 | 0.00 | 74 | 1006.8 |
| 20260504171553 | 26 | 212 | 1.6 | 4.8 | 0.00 | 0.00 | 0.00 | 74 | 1006.7 |
| 20260504171454 | 26 | 316 | 0.0 | 4.8 | 0.00 | 0.00 | 0.00 | 74 | 1006.8 |
| 20260504171355 | 26 | 148 | 0.0 | 4.8 | 0.00 | 0.00 | 0.00 | 74 | 1006.9 |
| 20260504171253 | 26 | 259 | 1.6 | 4.8 | 0.00 | 0.00 | 0.00 | 75 | 1006.9 |
| 20260504171154 | 26 | 259 | 1.6 | 6.4 | 0.00 | 0.00 | 0.00 | 75 | 1006.9 |
| 20260504171053 | 26 | 258 | 1.6 | 6.4 | 0.00 | 0.00 | 0.00 | 75 | 1007.0 |
| 20260504170953 | 26 | 99 | 1.6 | 6.4 | 0.00 | 0.00 | 0.00 | 74 | 1007.0 |
| 20260504170854 | 26 | 100 | 0.0 | 6.4 | 0.00 | 0.00 | 0.00 | 74 | 1007.0 |
| 20260504170752 | 26 | 102 | 1.6 | 8.0 | 0.00 | 0.00 | 0.00 | 75 | 1007.0 |
| 20260504170654 | 26 | 100 | 3.2 | 8.0 | 0.00 | 0.00 | 0.00 | 75 | 1006.9 |
| 20260504170554 | 26 | 238 | 1.6 | 8.0 | 0.00 | 0.00 | 0.00 | 75 | 1007.0 |
| 20260504170454 | 26 | 121 | 1.6 | 8.0 | 0.00 | 0.00 | 0.00 | 74 | 1007.1 |
| 20260504170354 | 26 | 142 | 1.6 | 8.0 | 0.00 | 0.00 | 0.00 | 74 | 1007.1 |
| 20260504170253 | 26 | 142 | 3.2 | 8.0 | 0.00 | 0.00 | 0.00 | 74 | 1007.0 |
| 20260504170153 | 26 | 255 | 3.2 | 8.0 | 0.00 | 0.00 | 0.00 | 74 | 1007.1 |
| 20260504160354 | 24 | 93 | 3.2 | 9.7 | 0.00 | 0.00 | 0.00 | 78 | 1007.8 |
| 20260504160253 | 24 | 182 | 3.2 | 9.7 | 0.00 | 0.00 | 0.00 | 78 | 1007.8 |
| 20260504160152 | 24 | 154 | 1.6 | 9.7 | 0.00 | 0.00 | 0.00 | 78 | 1007.8 |
| 20260504151150 | 21 | 114 | 1.6 | 6.4 | 0.00 | 0.00 | 0.00 | 86 | 1008.0 |
| 20260504151051 | 21 | 274 | 0.0 | 6.4 | 0.00 | 0.00 | 0.00 | 86 | 1008.1 |
| 20260504150956 | 21 | 0 | 1.6 | 6.4 | 0.00 | 0.00 | 0.00 | 86 | 1008.0 |
| 20260504150852 | 21 | 0 | 1.6 | 6.4 | 0.00 | 0.00 | 0.00 | 87 | 1007.9 |
| 20260504150751 | 21 | 200 | 1.6 | 6.4 | 0.00 | 0.00 | 0.00 | 87 | 1007.9 |
| 20260504150651 | 21 | 213 | 1.6 | 6.4 | 0.00 | 0.00 | 0.00 | 87 | 1008.0 |
| 20260504150551 | 21 | 228 | 1.6 | 6.4 | 0.00 | 0.00 | 0.00 | 88 | 1008.0 |
| 20260504150450 | 21 | 254 | 3.2 | 6.4 | 0.00 | 0.00 | 0.00 | 88 | 1007.9 |
| 20260504150350 | 21 | 266 | 3.2 | 6.4 | 0.00 | 0.00 | 0.00 | 88 | 1007.9 |
| 20260504150251 | 21 | 299 | 1.6 | 6.4 | 0.00 | 0.00 | 0.00 | 88 | 1007.9 |
| 20260504150150 | 21 | 228 | 1.6 | 6.4 | 0.00 | 0.00 | 0.00 | 88 | 1008.0 |
| 20260504141250 | 17 | 109 | 0.0 | 1.6 | 0.00 | 0.00 | 0.00 | 100 | 1007.9 |
| 20260504141150 | 16 | 32 | 0.0 | 0.0 | 0.00 | 0.00 | 0.00 | 99 | 1007.9 |
| 20260504141049 | 16 | 32 | 0.0 | 0.0 | 0.00 | 0.00 | 0.00 | 99 | 1008.0 |
| 20260504140949 | 16 | 32 | 0.0 | 0.0 | 0.00 | 0.00 | 0.00 | 99 | 1008.0 |
| 20260504140851 | 16 | 32 | 0.0 | 3.2 | 0.00 | 0.00 | 0.00 | 100 | 1007.9 |
| 20260504140749 | 16 | 32 | 0.0 | 3.2 | 0.00 | 0.00 | 0.00 | 100 | 1008.0 |
| 20260504140648 | 16 | 32 | 0.0 | 3.2 | 0.00 | 0.00 | 0.00 | 99 | 1007.9 |
| 20260504140550 | 16 | 32 | 0.0 | 3.2 | 0.00 | 0.00 | 0.00 | 99 | 1007.9 |
| 20260504140448 | 16 | 32 | 0.0 | 3.2 | 0.00 | 0.00 | 0.00 | 99 | 1007.9 |
| 20260504140349 | 16 | 32 | 0.0 | 3.2 | 0.00 | 0.00 | 0.00 | 99 | 1007.9 |
| 20260504140249 | 16 | 32 | 0.0 | 3.2 | 0.00 | 0.00 | 0.00 | 99 | 1008.0 |
| 20260504140150 | 16 | 32 | 0.0 | 3.2 | 0.00 | 0.00 | 0.00 | 99 | 1008.0 |
| 20260504130747 | 13 | 179 | 0.0 | 0.0 | 0.00 | 0.00 | 0.00 | 98 | 1008.0 |
| 20260504130648 | 13 | 179 | 0.0 | 0.0 | 0.00 | 0.00 | 0.00 | 98 | 1008.0 |
| 20260504130547 | 13 | 179 | 0.0 | 0.0 | 0.00 | 0.00 | 0.00 | 97 | 1007.9 |
| 20260504130448 | 13 | 179 | 0.0 | 0.0 | 0.00 | 0.00 | 0.00 | 97 | 1007.9 |
| 20260504130349 | 13 | 179 | 0.0 | 0.0 | 0.00 | 0.00 | 0.00 | 97 | 1007.8 |
| 20260504130248 | 13 | 179 | 0.0 | 0.0 | 0.00 | 0.00 | 0.00 | 97 | 1007.9 |
| 20260504130147 | 13 | 179 | 0.0 | 0.0 | 0.00 | 0.00 | 0.00 | 97 | 1007.9 |
| 20260504120247 | 12 | 179 | 0.0 | 0.0 | 0.00 | 0.00 | 0.00 | 96 | 1007.9 |
| 20260504120146 | 12 | 179 | 0.0 | 0.0 | 0.00 | 0.00 | 0.00 | 96 | 1007.8 |
| 20260504110703 | 13 | 179 | 0.0 | 0.0 | 0.00 | 0.00 | 0.00 | 95 | 1007.4 |
| 20260504110604 | 13 | 179 | 0.0 | 0.0 | 0.00 | 0.00 | 0.00 | 95 | 1007.4 |
| 20260504110538 | 13 | 179 | 0.0 | 0.0 | 0.00 | 0.00 | 0.00 | 95 | 1007.4 |
| 20260504110507 | 13 | 179 | 0.0 | 0.0 | 0.00 | 0.00 | 0.00 | 95 | 1007.4 |
| 20260504110403 | 13 | 179 | 0.0 | 0.0 | 0.00 | 0.00 | 0.00 | 95 | 1007.4 |
| 20260504110302 | 13 | 179 | 0.0 | 0.0 | 0.00 | 0.00 | 0.00 | 95 | 1007.4 |
| 20260504110202 | 13 | 179 | 0.0 | 0.0 | 0.00 | 0.00 | 0.00 | 95 | 1007.4 |
| 20260504100524 | 13 | 179 | 0.0 | 0.0 | 0.00 | 0.00 | 0.00 | 94 | 1007.6 |
| 20260504100416 | 13 | 179 | 0.0 | 0.0 | 0.00 | 0.00 | 0.00 | 94 | 1007.6 |
| 20260504100313 | 13 | 179 | 0.0 | 0.0 | 0.00 | 0.00 | 0.00 | 94 | 1007.7 |
| 20260504100213 | 13 | 179 | 0.0 | 0.0 | 0.00 | 0.00 | 0.00 | 94 | 1007.7 |
| 20260504100111 | 13 | 179 | 0.0 | 0.0 | 0.00 | 0.00 | 0.00 | 94 | 1007.7 |
| 20260504090142 | 14 | 179 | 0.0 | 0.0 | 0.00 | 0.00 | 0.00 | 93 | 1008.1 |
| 20260504081932 | 15 | 179 | 0.0 | 0.0 | 0.00 | 0.00 | 0.00 | 92 | 1008.2 |
| 20260504081832 | 15 | 179 | 0.0 | 0.0 | 0.00 | 0.00 | 0.00 | 92 | 1008.3 |
| 20260504081732 | 15 | 179 | 0.0 | 0.0 | 0.00 | 0.00 | 0.00 | 92 | 1008.3 |
| 20260504081632 | 15 | 179 | 0.0 | 0.0 | 0.00 | 0.00 | 0.00 | 92 | 1008.3 |
| 20260504081523 | 15 | 179 | 0.0 | 0.0 | 0.00 | 0.00 | 0.00 | 92 | 1008.2 |
| 20260504081424 | 15 | 179 | 0.0 | 0.0 | 0.00 | 0.00 | 0.00 | 92 | 1008.2 |
| 20260504081314 | 15 | 179 | 0.0 | 0.0 | 0.00 | 0.00 | 0.00 | 92 | 1008.3 |
| 20260504081219 | 15 | 179 | 0.0 | 0.0 | 0.00 | 0.00 | 0.00 | 92 | 1008.2 |
| 20260504081110 | 15 | 179 | 0.0 | 0.0 | 0.00 | 0.00 | 0.00 | 92 | 1008.2 |
| 20260504081008 | 15 | 179 | 0.0 | 0.0 | 0.00 | 0.00 | 0.00 | 92 | 1008.4 |
| 20260504080905 | 15 | 179 | 0.0 | 0.0 | 0.00 | 0.00 | 0.00 | 92 | 1008.3 |
| 20260504080802 | 15 | 179 | 0.0 | 0.0 | 0.00 | 0.00 | 0.00 | 92 | 1008.4 |
| 20260504080704 | 15 | 179 | 0.0 | 0.0 | 0.00 | 0.00 | 0.00 | 92 | 1008.4 |
| 20260504080603 | 15 | 179 | 0.0 | 0.0 | 0.00 | 0.00 | 0.00 | 92 | 1008.4 |
| 20260504080504 | 15 | 179 | 0.0 | 0.0 | 0.00 | 0.00 | 0.00 | 92 | 1008.3 |
| 20260504080403 | 15 | 179 | 0.0 | 0.0 | 0.00 | 0.00 | 0.00 | 92 | 1008.3 |
| 20260504080302 | 15 | 179 | 0.0 | 0.0 | 0.00 | 0.00 | 0.00 | 92 | 1008.4 |
| 20260504080204 | 15 | 179 | 0.0 | 0.0 | 0.00 | 0.00 | 0.00 | 92 | 1008.4 |
| 20260504080103 | 15 | 179 | 0.0 | 0.0 | 0.00 | 0.00 | 0.00 | 92 | 1008.3 |
| 20260504070403 | 15 | 179 | 0.0 | 0.0 | 0.00 | 0.00 | 0.00 | 89 | 1009.6 |
| 20260504070305 | 15 | 179 | 0.0 | 0.0 | 0.00 | 0.00 | 0.00 | 89 | 1009.6 |
| 20260504070204 | 15 | 179 | 0.0 | 0.0 | 0.00 | 0.00 | 0.00 | 89 | 1009.6 |
| 20260504070103 | 15 | 179 | 0.0 | 0.0 | 0.00 | 0.00 | 0.00 | 89 | 1009.7 |
| 20260504060202 | 15 | 179 | 0.0 | 0.0 | 0.00 | 0.00 | 0.00 | 85 | 1010.0 |
| 20260504060103 | 15 | 179 | 0.0 | 0.0 | 0.00 | 0.00 | 0.00 | 85 | 1010.0 |
| 20260504050703 | 16 | 179 | 0.0 | 0.0 | 0.00 | 0.03 | 0.00 | 82 | 1010.3 |
| 20260504050604 | 16 | 179 | 0.0 | 0.0 | 0.00 | 0.03 | 0.00 | 82 | 1010.3 |
| 20260504050504 | 16 | 179 | 0.0 | 0.0 | 0.00 | 0.03 | 0.00 | 82 | 1010.2 |
| 20260504050402 | 16 | 179 | 0.0 | 0.0 | 0.00 | 0.03 | 0.00 | 82 | 1010.3 |
| 20260504050302 | 16 | 179 | 0.0 | 0.0 | 0.00 | 0.03 | 0.00 | 82 | 1010.3 |
| 20260504050203 | 16 | 179 | 0.0 | 0.0 | 0.00 | 0.03 | 0.00 | 82 | 1010.4 |
| 20260504050104 | 16 | 179 | 0.0 | 0.0 | 0.00 | 0.03 | 0.00 | 82 | 1010.4 |
| 20260504050004 | 16 | 179 | 0.0 | 0.0 | 0.00 | 0.03 | 0.00 | 82 | 1010.4 |
| 20260504045903 | 16 | 179 | 0.0 | 0.0 | 0.00 | 0.03 | 0.00 | 82 | 1010.4 |
| 20260504045803 | 16 | 179 | 0.0 | 0.0 | 0.00 | 0.03 | 0.00 | 82 | 1010.4 |
| 20260504045702 | 16 | 179 | 0.0 | 0.0 | 0.00 | 0.03 | 0.00 | 82 | 1010.4 |
| 20260504045604 | 16 | 179 | 0.0 | 0.0 | 0.00 | 0.03 | 0.00 | 82 | 1010.3 |
| 20260504045502 | 16 | 179 | 0.0 | 0.0 | 0.00 | 0.03 | 0.00 | 82 | 1010.4 |
| 20260504045402 | 16 | 179 | 0.0 | 0.0 | 0.00 | 0.03 | 0.00 | 82 | 1010.3 |
| 20260504045304 | 16 | 179 | 0.0 | 0.0 | 0.00 | 0.03 | 0.00 | 82 | 1010.4 |
| 20260504045203 | 16 | 179 | 0.0 | 0.0 | 0.00 | 0.03 | 0.00 | 82 | 1010.3 |
| 20260504045102 | 16 | 179 | 0.0 | 0.0 | 0.00 | 0.03 | 0.00 | 82 | 1010.4 |
| 20260504045003 | 16 | 179 | 0.0 | 0.0 | 0.00 | 0.03 | 0.00 | 82 | 1010.4 |
| 20260504044902 | 16 | 179 | 0.0 | 0.0 | 0.00 | 0.03 | 0.00 | 82 | 1010.4 |
| 20260504044804 | 16 | 179 | 0.0 | 0.0 | 0.00 | 0.03 | 0.00 | 82 | 1010.4 |
| 20260504044702 | 16 | 179 | 0.0 | 0.0 | 0.00 | 0.03 | 0.00 | 82 | 1010.3 |
| 20260504044602 | 16 | 179 | 0.0 | 0.0 | 0.00 | 0.03 | 0.00 | 82 | 1010.4 |
| 20260504044502 | 16 | 179 | 0.0 | 0.0 | 0.00 | 0.03 | 0.00 | 82 | 1010.4 |
| 20260504044403 | 16 | 179 | 0.0 | 0.0 | 0.00 | 0.03 | 0.00 | 82 | 1010.4 |
| 20260504044304 | 16 | 179 | 0.0 | 0.0 | 0.00 | 0.03 | 0.00 | 82 | 1010.5 |
| 20260504044202 | 16 | 179 | 0.0 | 0.0 | 0.00 | 0.03 | 0.00 | 82 | 1010.5 |
| 20260504044103 | 16 | 179 | 0.0 | 0.0 | 0.00 | 0.03 | 0.00 | 82 | 1010.5 |
| 20260504044003 | 16 | 179 | 0.0 | 0.0 | 0.00 | 0.03 | 0.00 | 82 | 1010.5 |
| 20260504043902 | 16 | 179 | 0.0 | 0.0 | 0.00 | 0.03 | 0.00 | 82 | 1010.5 |
| 20260504043802 | 16 | 179 | 0.0 | 0.0 | 0.00 | 0.03 | 0.00 | 82 | 1010.5 |
| 20260504043702 | 16 | 179 | 0.0 | 0.0 | 0.00 | 0.03 | 0.00 | 82 | 1010.5 |
| 20260504043602 | 16 | 179 | 0.0 | 0.0 | 0.00 | 0.03 | 0.00 | 82 | 1010.6 |
| 20260504043503 | 16 | 179 | 0.0 | 0.0 | 0.00 | 0.03 | 0.00 | 82 | 1010.6 |
| 20260504043404 | 16 | 179 | 0.0 | 0.0 | 0.00 | 0.03 | 0.00 | 82 | 1010.6 |
| 20260504043303 | 16 | 179 | 0.0 | 0.0 | 0.00 | 0.03 | 0.00 | 82 | 1010.6 |
| 20260504043204 | 16 | 179 | 0.0 | 0.0 | 0.00 | 0.03 | 0.00 | 82 | 1010.6 |
| 20260504043102 | 16 | 179 | 0.0 | 0.0 | 0.00 | 0.03 | 0.00 | 82 | 1010.6 |
| 20260504043003 | 16 | 179 | 0.0 | 0.0 | 0.00 | 0.03 | 0.00 | 82 | 1010.6 |
| 20260504042902 | 16 | 179 | 0.0 | 0.0 | 0.00 | 0.03 | 0.00 | 82 | 1010.6 |
| 20260504042803 | 16 | 179 | 0.0 | 0.0 | 0.00 | 0.03 | 0.00 | 82 | 1010.6 |
| 20260504042702 | 16 | 179 | 0.0 | 0.0 | 0.00 | 0.03 | 0.00 | 82 | 1010.6 |
| 20260504042602 | 16 | 179 | 0.0 | 0.0 | 0.00 | 0.03 | 0.00 | 82 | 1010.6 |
| 20260504042503 | 17 | 179 | 0.0 | 0.0 | 0.00 | 0.03 | 0.00 | 82 | 1010.6 |
| 20260504042404 | 17 | 179 | 0.0 | 0.0 | 0.00 | 0.03 | 0.00 | 82 | 1010.6 |
| 20260504042304 | 17 | 179 | 0.0 | 0.0 | 0.00 | 0.03 | 0.00 | 82 | 1010.6 |
| 20260504042204 | 17 | 179 | 0.0 | 0.0 | 0.00 | 0.03 | 0.00 | 82 | 1010.6 |
| 20260504042104 | 17 | 179 | 0.0 | 0.0 | 0.00 | 0.03 | 0.00 | 82 | 1010.5 |
| 20260504042003 | 17 | 179 | 0.0 | 0.0 | 0.00 | 0.03 | 0.00 | 82 | 1010.5 |
| 20260504041904 | 17 | 179 | 0.0 | 0.0 | 0.00 | 0.03 | 0.00 | 82 | 1010.4 |
| 20260504041803 | 17 | 179 | 0.0 | 0.0 | 0.00 | 0.03 | 0.00 | 82 | 1010.5 |
| 20260504041702 | 17 | 179 | 0.0 | 0.0 | 0.00 | 0.03 | 0.00 | 82 | 1010.5 |
| 20260504041603 | 17 | 179 | 0.0 | 0.0 | 0.00 | 0.03 | 0.00 | 82 | 1010.5 |
| 20260504041504 | 17 | 179 | 0.0 | 0.0 | 0.00 | 0.03 | 0.00 | 82 | 1010.5 |
| 20260504041403 | 17 | 179 | 0.0 | 0.0 | 0.00 | 0.03 | 0.00 | 82 | 1010.5 |
| 20260504041302 | 17 | 179 | 0.0 | 0.0 | 0.00 | 0.03 | 0.00 | 82 | 1010.5 |
| 20260504041203 | 17 | 179 | 0.0 | 0.0 | 0.00 | 0.03 | 0.00 | 81 | 1010.6 |
| 20260504041102 | 17 | 179 | 0.0 | 0.0 | 0.00 | 0.03 | 0.00 | 81 | 1010.5 |
| 20260504041006 | 17 | 179 | 0.0 | 0.0 | 0.00 | 0.03 | 0.00 | 81 | 1010.5 |
| 20260504040903 | 17 | 179 | 0.0 | 0.0 | 0.00 | 0.03 | 0.00 | 81 | 1010.5 |
| 20260504040803 | 17 | 179 | 0.0 | 0.0 | 0.00 | 0.03 | 0.00 | 81 | 1010.6 |
| 20260504040705 | 17 | 179 | 0.0 | 0.0 | 0.00 | 0.03 | 0.00 | 81 | 1010.6 |
| 20260504040602 | 17 | 179 | 0.0 | 0.0 | 0.00 | 0.03 | 0.00 | 81 | 1010.5 |
| 20260504040504 | 17 | 179 | 0.0 | 0.0 | 0.00 | 0.03 | 0.00 | 81 | 1010.5 |
| 20260504040403 | 17 | 179 | 0.0 | 0.0 | 0.00 | 0.03 | 0.00 | 81 | 1010.5 |
| 20260504040303 | 17 | 179 | 0.0 | 0.0 | 0.00 | 0.03 | 0.00 | 81 | 1010.6 |
| 20260504040204 | 17 | 179 | 0.0 | 0.0 | 0.00 | 0.03 | 0.00 | 81 | 1010.6 |
| 20260504040053 | 17 | 179 | 0.0 | 0.0 | 0.00 | 0.03 | 0.00 | 81 | 1010.6 |
| 20260504035951 | 17 | 179 | 0.0 | 1.6 | 0.00 | 0.03 | 0.03 | 81 | 1010.6 |
| 20260504035846 | 17 | 179 | 0.0 | 1.6 | 0.00 | 0.03 | 0.03 | 81 | 1010.7 |
| 20260504035748 | 17 | 179 | 0.0 | 1.6 | 0.00 | 0.03 | 0.03 | 81 | 1010.5 |
| 20260504035644 | 17 | 179 | 0.0 | 1.6 | 0.00 | 0.03 | 0.03 | 81 | 1010.6 |
| 20260504035546 | 17 | 179 | 0.0 | 3.2 | 0.00 | 0.03 | 0.03 | 81 | 1010.5 |
| 20260504035444 | 17 | 179 | 0.0 | 3.2 | 0.00 | 0.03 | 0.03 | 81 | 1010.5 |
| 20260504035343 | 17 | 179 | 0.0 | 3.2 | 0.00 | 0.03 | 0.03 | 81 | 1010.5 |
| 20260504035242 | 17 | 179 | 0.0 | 3.2 | 0.00 | 0.03 | 0.03 | 81 | 1010.5 |
| 20260504035131 | 17 | 179 | 0.0 | 3.2 | 0.00 | 0.03 | 0.03 | 81 | 1010.5 |
| 20260504035031 | 17 | 179 | 0.0 | 3.2 | 0.00 | 0.03 | 0.03 | 81 | 1010.5 |
| 20260504034931 | 17 | 179 | 0.0 | 3.2 | 0.00 | 0.03 | 0.03 | 81 | 1010.5 |
| 20260504034831 | 17 | 179 | 0.0 | 3.2 | 0.00 | 0.03 | 0.03 | 81 | 1010.5 |
| 20260504034732 | 17 | 176 | 0.0 | 3.2 | 0.00 | 0.03 | 0.03 | 81 | 1010.7 |
| 20260504034630 | 17 | 212 | 0.0 | 0.0 | 0.00 | 0.03 | 0.03 | 81 | 1010.6 |
| 20260504034529 | 17 | 210 | 0.0 | 0.0 | 0.00 | 0.03 | 0.03 | 81 | 1010.6 |
| 20260504034428 | 17 | 210 | 0.0 | 0.0 | 0.00 | 0.03 | 0.03 | 81 | 1010.6 |
| 20260504034327 | 17 | 207 | 0.0 | 0.0 | 0.00 | 0.03 | 0.03 | 81 | 1010.5 |
| 20260504034227 | 17 | 207 | 0.0 | 0.0 | 0.00 | 0.03 | 0.03 | 81 | 1010.5 |
| 20260504034128 | 17 | 207 | 0.0 | 0.0 | 0.00 | 0.03 | 0.03 | 81 | 1010.5 |
| 20260504034028 | 17 | 207 | 0.0 | 0.0 | 0.00 | 0.03 | 0.03 | 81 | 1010.5 |
| 20260504033928 | 17 | 207 | 0.0 | 0.0 | 0.00 | 0.03 | 0.03 | 81 | 1010.5 |
| 20260504033830 | 17 | 207 | 0.0 | 0.0 | 0.00 | 0.03 | 0.03 | 81 | 1010.5 |
| 20260504033729 | 17 | 207 | 0.0 | 0.0 | 0.00 | 0.03 | 0.03 | 81 | 1010.4 |
| 20260504033628 | 17 | 207 | 0.0 | 0.0 | 0.00 | 0.03 | 0.03 | 81 | 1010.4 |
| 20260504033529 | 17 | 207 | 0.0 | 0.0 | 0.00 | 0.03 | 0.03 | 81 | 1010.4 |
| 20260504033428 | 17 | 207 | 0.0 | 0.0 | 0.00 | 0.03 | 0.03 | 81 | 1010.4 |
| 20260504033327 | 17 | 207 | 0.0 | 0.0 | 0.00 | 0.03 | 0.03 | 81 | 1010.5 |
| 20260504033229 | 17 | 207 | 0.0 | 0.0 | 0.00 | 0.03 | 0.03 | 81 | 1010.5 |
| 20260504033127 | 17 | 207 | 0.0 | 0.0 | 0.00 | 0.03 | 0.03 | 81 | 1010.4 |
| 20260504033027 | 17 | 207 | 0.0 | 0.0 | 0.00 | 0.03 | 0.03 | 81 | 1010.4 |
| 20260504032927 | 17 | 207 | 0.0 | 0.0 | 0.00 | 0.03 | 0.03 | 81 | 1010.5 |
| 20260504032827 | 17 | 207 | 0.0 | 0.0 | 0.00 | 0.03 | 0.03 | 81 | 1010.6 |
| 20260504032727 | 17 | 207 | 0.0 | 0.0 | 0.00 | 0.03 | 0.03 | 81 | 1010.5 |
| 20260504032629 | 17 | 207 | 0.0 | 0.0 | 0.00 | 0.03 | 0.03 | 81 | 1010.5 |
| 20260504032528 | 17 | 207 | 0.0 | 0.0 | 0.00 | 0.03 | 0.03 | 81 | 1010.5 |
| 20260504032425 | 17 | 207 | 0.0 | 0.0 | 0.00 | 0.03 | 0.03 | 81 | 1010.4 |
| 20260504032320 | 17 | 207 | 0.0 | 0.0 | 0.00 | 0.03 | 0.03 | 81 | 1010.5 |
| 20260504032218 | 17 | 207 | 0.0 | 0.0 | 0.00 | 0.03 | 0.03 | 81 | 1010.4 |
| 20260504032113 | 17 | 207 | 0.0 | 0.0 | 0.00 | 0.03 | 0.03 | 81 | 1010.4 |
| 20260504032012 | 17 | 207 | 0.0 | 0.0 | 0.00 | 0.03 | 0.03 | 81 | 1010.4 |
| 20260504031907 | 17 | 207 | 0.0 | 0.0 | 0.00 | 0.03 | 0.03 | 81 | 1010.4 |
| 20260504031807 | 17 | 207 | 0.0 | 0.0 | 0.00 | 0.03 | 0.03 | 81 | 1010.4 |
| 20260504031704 | 17 | 207 | 0.0 | 0.0 | 0.00 | 0.03 | 0.03 | 81 | 1010.3 |
| 20260504031603 | 17 | 207 | 0.0 | 0.0 | 0.00 | 0.03 | 0.03 | 81 | 1010.3 |
| 20260504031502 | 18 | 207 | 0.0 | 0.0 | 0.00 | 0.03 | 0.03 | 81 | 1010.3 |
| 20260504031402 | 18 | 207 | 0.0 | 0.0 | 0.00 | 0.03 | 0.03 | 81 | 1010.3 |
| 20260504031303 | 18 | 207 | 0.0 | 0.0 | 0.00 | 0.03 | 0.03 | 81 | 1010.4 |
| 20260504031200 | 18 | 207 | 0.0 | 0.0 | 0.00 | 0.03 | 0.03 | 81 | 1010.4 |
| 20260504031059 | 18 | 207 | 0.0 | 0.0 | 0.00 | 0.03 | 0.03 | 81 | 1010.3 |
| 20260504030957 | 18 | 207 | 0.0 | 0.0 | 0.00 | 0.03 | 0.03 | 81 | 1010.3 |
| 20260504030854 | 18 | 207 | 0.0 | 0.0 | 0.00 | 0.03 | 0.03 | 80 | 1010.3 |
| 20260504030750 | 18 | 207 | 0.0 | 0.0 | 0.00 | 0.03 | 0.03 | 80 | 1010.3 |
| 20260504030650 | 18 | 207 | 0.0 | 0.0 | 0.00 | 0.03 | 0.03 | 80 | 1010.4 |
| 20260504030544 | 18 | 207 | 0.0 | 0.0 | 0.00 | 0.03 | 0.03 | 80 | 1010.3 |
| 20260504030439 | 18 | 207 | 0.0 | 0.0 | 0.00 | 0.03 | 0.03 | 80 | 1010.2 |
| 20260504030335 | 18 | 207 | 0.0 | 0.0 | 0.00 | 0.03 | 0.03 | 80 | 1010.3 |
| 20260504030232 | 18 | 207 | 0.0 | 0.0 | 0.00 | 0.03 | 0.03 | 80 | 1010.2 |
| 20260504030132 | 18 | 207 | 0.0 | 0.0 | 0.00 | 0.03 | 0.03 | 80 | 1010.2 |
| 20260504030041 | 18 | 207 | 0.0 | 0.0 | 0.00 | 0.03 | 0.03 | 80 | 1010.3 |
| 20260504025927 | 18 | 207 | 0.0 | 0.0 | 0.00 | 0.03 | 0.03 | 80 | 1010.2 |
| 20260504025826 | 18 | 207 | 0.0 | 0.0 | 0.00 | 0.03 | 0.03 | 80 | 1010.2 |
| 20260504025727 | 18 | 207 | 0.0 | 0.0 | 0.00 | 0.03 | 0.03 | 80 | 1010.2 |
| 20260504025628 | 18 | 207 | 0.0 | 0.0 | 0.00 | 0.03 | 0.03 | 80 | 1010.2 |
| 20260504025528 | 18 | 207 | 0.0 | 0.0 | 0.00 | 0.03 | 0.03 | 80 | 1010.2 |
| 20260504025426 | 18 | 207 | 0.0 | 0.0 | 0.00 | 0.03 | 0.03 | 80 | 1010.1 |
| 20260504025327 | 18 | 207 | 0.0 | 0.0 | 0.00 | 0.03 | 0.03 | 80 | 1010.2 |
| 20260504025228 | 18 | 207 | 0.0 | 0.0 | 0.00 | 0.03 | 0.03 | 80 | 1010.1 |
| 20260504025126 | 18 | 207 | 0.0 | 0.0 | 0.00 | 0.03 | 0.03 | 80 | 1010.2 |
| 20260504025028 | 18 | 207 | 0.0 | 1.6 | 0.00 | 0.03 | 0.03 | 80 | 1010.2 |
| 20260504024927 | 18 | 207 | 0.0 | 1.6 | 0.00 | 0.03 | 0.03 | 80 | 1010.2 |
| 20260504024827 | 18 | 207 | 0.0 | 1.6 | 0.00 | 0.03 | 0.03 | 80 | 1010.1 |
| 20260504024726 | 18 | 204 | 0.0 | 1.6 | 0.00 | 0.03 | 0.03 | 80 | 1010.2 |
| 20260504024626 | 18 | 204 | 0.0 | 1.6 | 0.00 | 0.03 | 0.03 | 81 | 1010.2 |
| 20260504024527 | 18 | 204 | 0.0 | 1.6 | 0.00 | 0.03 | 0.03 | 81 | 1010.1 |
| 20260504024428 | 18 | 204 | 0.0 | 1.6 | 0.00 | 0.03 | 0.03 | 80 | 1010.2 |
| 20260504024331 | 18 | 204 | 0.0 | 1.6 | 0.00 | 0.03 | 0.03 | 81 | 1010.1 |
| 20260504024215 | 18 | 204 | 0.0 | 1.6 | 0.00 | 0.03 | 0.03 | 81 | 1010.1 |
| 20260504024111 | 18 | 204 | 0.0 | 1.6 | 0.00 | 0.03 | 0.03 | 81 | 1010.0 |
| 20260504024003 | 18 | 204 | 0.0 | 1.6 | 0.00 | 0.03 | 0.03 | 80 | 1010.0 |
| 20260504023904 | 18 | 204 | 0.0 | 1.6 | 0.00 | 0.03 | 0.03 | 80 | 1010.0 |
| 20260504023804 | 18 | 204 | 0.0 | 1.6 | 0.00 | 0.03 | 0.03 | 80 | 1009.9 |
| 20260504023703 | 18 | 204 | 0.0 | 1.6 | 0.00 | 0.03 | 0.03 | 80 | 1010.0 |
| 20260504023603 | 18 | 204 | 0.0 | 1.6 | 0.00 | 0.03 | 0.03 | 80 | 1010.0 |
| 20260504023503 | 18 | 204 | 0.0 | 1.6 | 0.00 | 0.03 | 0.03 | 79 | 1009.9 |
| 20260504023402 | 18 | 203 | 0.0 | 0.0 | 0.00 | 0.03 | 0.03 | 79 | 1009.9 |
| 20260504023303 | 18 | 203 | 0.0 | 0.0 | 0.00 | 0.03 | 0.03 | 79 | 1010.0 |
| 20260504023203 | 18 | 203 | 0.0 | 0.0 | 0.00 | 0.03 | 0.03 | 79 | 1009.9 |
| 20260504023103 | 18 | 203 | 0.0 | 0.0 | 0.00 | 0.03 | 0.03 | 79 | 1010.0 |
| 20260504023005 | 18 | 203 | 0.0 | 0.0 | 0.00 | 0.03 | 0.03 | 79 | 1009.9 |
| 20260504022903 | 18 | 203 | 0.0 | 0.0 | 0.00 | 0.03 | 0.03 | 79 | 1009.9 |
| 20260504022805 | 18 | 203 | 0.0 | 0.0 | 0.00 | 0.03 | 0.03 | 79 | 1009.9 |
| 20260504022703 | 18 | 203 | 0.0 | 0.0 | 0.00 | 0.03 | 0.03 | 79 | 1009.9 |
| 20260504022604 | 18 | 203 | 0.0 | 0.0 | 0.00 | 0.03 | 0.03 | 79 | 1009.9 |
| 20260504022503 | 19 | 203 | 0.0 | 0.0 | 0.00 | 0.03 | 0.03 | 79 | 1009.8 |
| 20260504022403 | 19 | 203 | 0.0 | 0.0 | 0.00 | 0.03 | 0.03 | 79 | 1009.9 |
| 20260504022304 | 19 | 203 | 0.0 | 0.0 | 0.00 | 0.03 | 0.03 | 79 | 1009.9 |
| 20260504022204 | 19 | 203 | 0.0 | 0.0 | 0.00 | 0.03 | 0.03 | 78 | 1010.0 |
| 20260504022102 | 19 | 203 | 0.0 | 0.0 | 0.00 | 0.03 | 0.03 | 78 | 1009.9 |
| 20260504022004 | 19 | 203 | 0.0 | 0.0 | 0.00 | 0.03 | 0.03 | 78 | 1010.0 |
| 20260504021902 | 19 | 203 | 0.0 | 0.0 | 0.00 | 0.03 | 0.03 | 78 | 1009.9 |
| 20260504021802 | 19 | 203 | 0.0 | 0.0 | 0.00 | 0.03 | 0.03 | 78 | 1010.0 |
| 20260504021704 | 19 | 203 | 0.0 | 0.0 | 0.00 | 0.03 | 0.03 | 78 | 1010.0 |
| 20260504021603 | 19 | 203 | 0.0 | 0.0 | 0.00 | 0.03 | 0.03 | 78 | 1009.9 |
| 20260504021502 | 19 | 203 | 0.0 | 0.0 | 0.00 | 0.03 | 0.03 | 78 | 1009.9 |
| 20260504021402 | 19 | 203 | 0.0 | 0.0 | 0.00 | 0.03 | 0.03 | 78 | 1009.9 |
| 20260504021303 | 19 | 203 | 0.0 | 0.0 | 0.00 | 0.03 | 0.03 | 78 | 1009.9 |
| 20260504021202 | 19 | 203 | 0.0 | 0.0 | 0.00 | 0.03 | 0.03 | 78 | 1009.9 |
| 20260504021102 | 19 | 203 | 0.0 | 0.0 | 0.00 | 0.03 | 0.03 | 78 | 1009.9 |
| 20260504021002 | 19 | 203 | 0.0 | 0.0 | 0.00 | 0.03 | 0.03 | 78 | 1009.9 |
| 20260504020905 | 20 | 203 | 0.0 | 0.0 | 0.00 | 0.03 | 0.03 | 76 | 1009.9 |
| 20260504020803 | 20 | 203 | 0.0 | 0.0 | 0.00 | 0.03 | 0.03 | 76 | 1009.9 |
| 20260504020703 | 20 | 203 | 0.0 | 0.0 | 0.00 | 0.03 | 0.03 | 76 | 1009.9 |
| 20260504020603 | 20 | 203 | 0.0 | 0.0 | 0.00 | 0.03 | 0.03 | 76 | 1009.8 |
| 20260504020502 | 20 | 203 | 0.0 | 0.0 | 0.00 | 0.03 | 0.03 | 76 | 1009.8 |
| 20260504020403 | 20 | 203 | 0.0 | 0.0 | 0.00 | 0.03 | 0.03 | 76 | 1009.8 |
| 20260504020303 | 20 | 203 | 0.0 | 0.0 | 0.00 | 0.03 | 0.03 | 76 | 1009.8 |
| 20260504020202 | 20 | 203 | 0.0 | 0.0 | 0.00 | 0.03 | 0.03 | 76 | 1009.8 |
| 20260504020104 | 20 | 203 | 0.0 | 0.0 | 0.00 | 0.03 | 0.03 | 76 | 1009.8 |
| 20260504020003 | 20 | 203 | 0.0 | 0.0 | 0.00 | 0.03 | 0.03 | 76 | 1009.7 |
| 20260504015902 | 20 | 203 | 0.0 | 0.0 | 0.00 | 0.03 | 0.03 | 76 | 1009.8 |
| 20260504015803 | 20 | 203 | 0.0 | 0.0 | 0.00 | 0.03 | 0.03 | 76 | 1009.7 |
| 20260504015701 | 20 | 203 | 0.0 | 0.0 | 0.00 | 0.03 | 0.03 | 76 | 1009.8 |
| 20260504015602 | 20 | 203 | 0.0 | 0.0 | 0.00 | 0.03 | 0.03 | 76 | 1009.8 |
| 20260504015503 | 20 | 203 | 0.0 | 0.0 | 0.00 | 0.03 | 0.03 | 76 | 1009.7 |
| 20260504015404 | 20 | 203 | 0.0 | 0.0 | 0.00 | 0.03 | 0.03 | 76 | 1009.7 |
| 20260504015304 | 20 | 203 | 0.0 | 0.0 | 0.00 | 0.03 | 0.03 | 76 | 1009.7 |
| 20260504015158 | 20 | 203 | 0.0 | 0.0 | 0.00 | 0.03 | 0.03 | 76 | 1009.8 |
| 20260504015053 | 20 | 203 | 0.0 | 0.0 | 0.00 | 0.03 | 0.03 | 76 | 1009.7 |
| 20260504014948 | 20 | 203 | 0.0 | 0.0 | 0.00 | 0.03 | 0.03 | 76 | 1009.7 |
| 20260504014844 | 20 | 203 | 0.0 | 0.0 | 0.00 | 0.03 | 0.03 | 76 | 1009.7 |
| 20260504014737 | 20 | 203 | 0.0 | 0.0 | 0.00 | 0.03 | 0.03 | 76 | 1009.7 |
| 20260504014634 | 20 | 203 | 0.0 | 0.0 | 0.00 | 0.03 | 0.03 | 76 | 1009.6 |
| 20260504014531 | 20 | 203 | 0.0 | 0.0 | 0.00 | 0.03 | 0.03 | 74 | 1009.5 |
| 20260504014433 | 20 | 203 | 0.0 | 0.0 | 0.00 | 0.03 | 0.03 | 74 | 1009.5 |
| 20260504014333 | 21 | 203 | 0.0 | 0.0 | 0.00 | 0.03 | 0.03 | 74 | 1009.5 |
| 20260504014231 | 21 | 203 | 0.0 | 0.0 | 0.00 | 0.03 | 0.03 | 74 | 1009.5 |
| 20260504014133 | 21 | 203 | 0.0 | 0.0 | 0.00 | 0.03 | 0.03 | 74 | 1009.4 |
| 20260504014032 | 21 | 203 | 0.0 | 0.0 | 0.00 | 0.03 | 0.03 | 74 | 1009.5 |
| 20260504013932 | 21 | 203 | 0.0 | 0.0 | 0.00 | 0.03 | 0.03 | 74 | 1009.5 |
| 20260504013832 | 21 | 203 | 0.0 | 0.0 | 0.00 | 0.03 | 0.03 | 74 | 1009.6 |
| 20260504013733 | 21 | 203 | 0.0 | 0.0 | 0.00 | 0.03 | 0.03 | 74 | 1009.5 |
| 20260504013633 | 21 | 203 | 0.0 | 0.0 | 0.00 | 0.03 | 0.03 | 74 | 1009.5 |
| 20260504013525 | 21 | 203 | 0.0 | 0.0 | 0.00 | 0.03 | 0.03 | 74 | 1009.5 |
| 20260504013427 | 21 | 203 | 0.0 | 0.0 | 0.00 | 0.03 | 0.03 | 74 | 1009.5 |
| 20260504013325 | 21 | 203 | 0.0 | 0.0 | 0.00 | 0.03 | 0.03 | 74 | 1009.5 |
| 20260504013226 | 21 | 203 | 0.0 | 0.0 | 0.00 | 0.03 | 0.03 | 74 | 1009.6 |
| 20260504013125 | 21 | 203 | 0.0 | 0.0 | 0.00 | 0.03 | 0.03 | 74 | 1009.5 |
| 20260504013025 | 21 | 203 | 0.0 | 0.0 | 0.00 | 0.03 | 0.03 | 74 | 1009.5 |
| 20260504012926 | 21 | 203 | 0.0 | 0.0 | 0.00 | 0.03 | 0.03 | 74 | 1009.6 |
| 20260504012825 | 21 | 203 | 0.0 | 0.0 | 0.00 | 0.03 | 0.03 | 74 | 1009.5 |
| 20260504012724 | 21 | 203 | 0.0 | 0.0 | 0.00 | 0.03 | 0.03 | 74 | 1009.4 |
| 20260504012627 | 21 | 203 | 0.0 | 0.0 | 0.00 | 0.03 | 0.03 | 74 | 1009.5 |
| 20260504012527 | 21 | 203 | 0.0 | 0.0 | 0.00 | 0.03 | 0.03 | 74 | 1009.5 |
| 20260504012427 | 21 | 203 | 0.0 | 0.0 | 0.00 | 0.03 | 0.03 | 74 | 1009.5 |
| 20260504012320 | 21 | 203 | 0.0 | 0.0 | 0.00 | 0.03 | 0.03 | 73 | 1009.4 |
| 20260504012216 | 21 | 203 | 0.0 | 0.0 | 0.00 | 0.03 | 0.03 | 73 | 1009.4 |
| 20260504012113 | 21 | 203 | 0.0 | 0.0 | 0.00 | 0.03 | 0.03 | 73 | 1009.5 |
| 20260504012012 | 21 | 203 | 0.0 | 0.0 | 0.00 | 0.03 | 0.03 | 73 | 1009.5 |
| 20260504011911 | 21 | 203 | 0.0 | 0.0 | 0.00 | 0.03 | 0.03 | 73 | 1009.4 |
| 20260504011802 | 22 | 203 | 0.0 | 0.0 | 0.00 | 0.03 | 0.03 | 73 | 1009.4 |
| 20260504011703 | 22 | 203 | 0.0 | 0.0 | 0.00 | 0.03 | 0.03 | 73 | 1009.5 |
| 20260504011602 | 22 | 203 | 0.0 | 0.0 | 0.00 | 0.03 | 0.03 | 73 | 1009.5 |
| 20260504011502 | 22 | 203 | 0.0 | 0.0 | 0.00 | 0.03 | 0.03 | 73 | 1009.4 |
| 20260504011404 | 22 | 203 | 0.0 | 0.0 | 0.00 | 0.03 | 0.03 | 73 | 1009.4 |
| 20260504011303 | 22 | 203 | 0.0 | 0.0 | 0.00 | 0.03 | 0.03 | 73 | 1009.4 |
| 20260504011202 | 22 | 203 | 0.0 | 0.0 | 0.00 | 0.03 | 0.03 | 73 | 1009.4 |
| 20260504011104 | 22 | 203 | 0.0 | 0.0 | 0.00 | 0.03 | 0.03 | 73 | 1009.4 |
| 20260504011004 | 22 | 203 | 0.0 | 0.0 | 0.00 | 0.03 | 0.03 | 73 | 1009.4 |
| 20260504010905 | 22 | 203 | 0.0 | 0.0 | 0.00 | 0.03 | 0.03 | 73 | 1009.3 |
| 20260504010804 | 22 | 203 | 0.0 | 0.0 | 0.00 | 0.03 | 0.03 | 73 | 1009.3 |
| 20260504010702 | 22 | 203 | 0.0 | 0.0 | 0.00 | 0.03 | 0.03 | 73 | 1009.3 |
| 20260504010603 | 22 | 203 | 0.0 | 0.0 | 0.00 | 0.03 | 0.03 | 72 | 1009.3 |
| 20260504010503 | 22 | 203 | 0.0 | 0.0 | 0.00 | 0.03 | 0.03 | 72 | 1009.3 |
| 20260504010402 | 22 | 203 | 0.0 | 0.0 | 0.00 | 0.03 | 0.03 | 72 | 1009.3 |
| 20260504010303 | 22 | 203 | 0.0 | 0.0 | 0.00 | 0.03 | 0.03 | 72 | 1009.3 |
| 20260504010202 | 22 | 203 | 0.0 | 0.0 | 0.00 | 0.03 | 0.03 | 72 | 1009.3 |
| 20260504010004 | 22 | 203 | 0.0 | 0.0 | 0.00 | 0.03 | 0.03 | 72 | 1009.3 |
| 20260504005903 | 22 | 203 | 0.0 | 0.0 | 0.00 | 0.03 | 0.03 | 72 | 1009.3 |
| 20260504005802 | 22 | 203 | 0.0 | 0.0 | 0.00 | 0.03 | 0.03 | 72 | 1009.4 |
| 20260504005704 | 22 | 203 | 0.0 | 0.0 | 0.00 | 0.03 | 0.03 | 72 | 1009.4 |
| 20260504005604 | 22 | 203 | 0.0 | 0.0 | 0.00 | 0.03 | 0.03 | 72 | 1009.4 |
| 20260504005504 | 22 | 203 | 0.0 | 0.0 | 0.00 | 0.03 | 0.03 | 72 | 1009.5 |
| 20260504005403 | 23 | 203 | 0.0 | 0.0 | 0.00 | 0.03 | 0.03 | 72 | 1009.4 |
| 20260504005305 | 23 | 203 | 0.0 | 0.0 | 0.00 | 0.03 | 0.03 | 72 | 1009.4 |
| 20260504005202 | 23 | 203 | 0.0 | 0.0 | 0.00 | 0.03 | 0.03 | 72 | 1009.4 |
| 20260504005106 | 23 | 203 | 0.0 | 0.0 | 0.00 | 0.03 | 0.03 | 72 | 1009.4 |
| 20260504005004 | 23 | 203 | 0.0 | 0.0 | 0.00 | 0.03 | 0.03 | 72 | 1009.4 |
| 20260504004902 | 23 | 203 | 0.0 | 0.0 | 0.00 | 0.03 | 0.03 | 72 | 1009.4 |
| 20260504004803 | 23 | 203 | 0.0 | 0.0 | 0.00 | 0.03 | 0.03 | 72 | 1009.4 |
| 20260504004703 | 23 | 203 | 0.0 | 0.0 | 0.00 | 0.03 | 0.03 | 72 | 1009.4 |
| 20260504004604 | 23 | 203 | 0.0 | 0.0 | 0.00 | 0.03 | 0.03 | 72 | 1009.4 |
| 20260504004504 | 23 | 203 | 0.0 | 0.0 | 0.00 | 0.03 | 0.03 | 72 | 1009.4 |
| 20260504004405 | 23 | 203 | 0.0 | 0.0 | 0.00 | 0.03 | 0.03 | 72 | 1009.4 |
| 20260504004303 | 23 | 203 | 0.0 | 0.0 | 0.00 | 0.03 | 0.03 | 72 | 1009.4 |
| 20260504004204 | 23 | 203 | 0.0 | 0.0 | 0.00 | 0.03 | 0.03 | 72 | 1009.4 |
| 20260504004104 | 23 | 203 | 0.0 | 0.0 | 0.00 | 0.03 | 0.03 | 72 | 1009.5 |
| 20260504004003 | 23 | 203 | 0.0 | 0.0 | 0.00 | 0.03 | 0.03 | 72 | 1009.4 |
| 20260504003903 | 23 | 203 | 0.0 | 0.0 | 0.00 | 0.03 | 0.03 | 71 | 1009.4 |
| 20260504003803 | 23 | 203 | 0.0 | 0.0 | 0.00 | 0.03 | 0.03 | 71 | 1009.4 |
| 20260504003703 | 23 | 203 | 0.0 | 0.0 | 0.00 | 0.03 | 0.03 | 71 | 1009.4 |
| 20260504003602 | 23 | 203 | 0.0 | 0.0 | 0.00 | 0.03 | 0.03 | 71 | 1009.4 |
| 20260504003503 | 23 | 203 | 0.0 | 0.0 | 0.00 | 0.03 | 0.03 | 71 | 1009.4 |
| 20260504003403 | 23 | 203 | 0.0 | 0.0 | 0.00 | 0.03 | 0.03 | 71 | 1009.4 |
| 20260504003302 | 23 | 203 | 0.0 | 0.0 | 0.00 | 0.03 | 0.03 | 71 | 1009.5 |
| 20260504003203 | 23 | 203 | 0.0 | 0.0 | 0.00 | 0.03 | 0.03 | 71 | 1009.5 |
| 20260504003102 | 23 | 203 | 0.0 | 0.0 | 0.00 | 0.03 | 0.03 | 71 | 1009.5 |
| 20260504003003 | 23 | 203 | 0.0 | 0.0 | 0.00 | 0.03 | 0.03 | 71 | 1009.5 |
| 20260504002903 | 24 | 203 | 0.0 | 0.0 | 0.00 | 0.03 | 0.03 | 71 | 1009.5 |
| 20260504002802 | 24 | 203 | 0.0 | 0.0 | 0.00 | 0.03 | 0.03 | 71 | 1009.5 |
| 20260504002704 | 24 | 203 | 0.0 | 0.0 | 0.00 | 0.03 | 0.03 | 71 | 1009.5 |
| 20260504002604 | 24 | 203 | 0.0 | 0.0 | 0.00 | 0.03 | 0.03 | 71 | 1009.5 |
| 20260504002508 | 24 | 203 | 0.0 | 0.0 | 0.00 | 0.03 | 0.03 | 71 | 1009.5 |
| 20260504002402 | 24 | 203 | 0.0 | 0.0 | 0.00 | 0.03 | 0.03 | 71 | 1009.5 |
| 20260504002305 | 24 | 203 | 0.0 | 0.0 | 0.00 | 0.03 | 0.03 | 71 | 1009.6 |
| 20260504002204 | 24 | 203 | 0.0 | 0.0 | 0.00 | 0.03 | 0.03 | 71 | 1009.5 |
| 20260504002103 | 24 | 203 | 0.0 | 0.0 | 0.00 | 0.03 | 0.03 | 71 | 1009.6 |
| 20260504002004 | 24 | 203 | 0.0 | 0.0 | 0.00 | 0.03 | 0.03 | 71 | 1009.6 |
| 20260504001903 | 24 | 203 | 0.0 | 0.0 | 0.00 | 0.03 | 0.03 | 71 | 1009.6 |
| 20260504001803 | 24 | 203 | 0.0 | 0.0 | 0.00 | 0.03 | 0.03 | 71 | 1009.6 |
| 20260504001659 | 24 | 203 | 0.0 | 0.0 | 0.00 | 0.03 | 0.03 | 71 | 1009.5 |
| 20260504001558 | 24 | 203 | 0.0 | 0.0 | 0.00 | 0.03 | 0.03 | 71 | 1009.6 |
| 20260504001457 | 24 | 203 | 0.0 | 0.0 | 0.00 | 0.03 | 0.03 | 71 | 1009.5 |
| 20260504001355 | 24 | 203 | 0.0 | 0.0 | 0.00 | 0.03 | 0.03 | 71 | 1009.5 |
| 20260504001253 | 24 | 203 | 0.0 | 0.0 | 0.00 | 0.03 | 0.03 | 71 | 1009.6 |
| 20260504001146 | 24 | 203 | 0.0 | 0.0 | 0.00 | 0.03 | 0.03 | 71 | 1009.6 |
| 20260504001034 | 24 | 203 | 0.0 | 0.0 | 0.00 | 0.03 | 0.03 | 71 | 1009.5 |
| 20260504000932 | 24 | 203 | 0.0 | 0.0 | 0.00 | 0.03 | 0.03 | 71 | 1009.6 |
| 20260504000832 | 24 | 203 | 0.0 | 1.6 | 0.00 | 0.03 | 0.03 | 71 | 1009.5 |
| 20260504000731 | 24 | 203 | 0.0 | 1.6 | 0.00 | 0.03 | 0.03 | 71 | 1009.5 |
| 20260504000632 | 24 | 203 | 0.0 | 1.6 | 0.00 | 0.03 | 0.03 | 70 | 1009.5 |
| 20260504000532 | 24 | 203 | 0.0 | 1.6 | 0.00 | 0.03 | 0.03 | 70 | 1009.4 |
| 20260504000432 | 24 | 203 | 0.0 | 1.6 | 0.00 | 0.03 | 0.03 | 70 | 1009.4 |
| 20260504000332 | 25 | 203 | 0.0 | 1.6 | 0.00 | 0.03 | 0.03 | 70 | 1009.4 |
| 20260504000233 | 25 | 203 | 0.0 | 1.6 | 0.00 | 0.03 | 0.03 | 70 | 1009.4 |
| 20260504000132 | 25 | 203 | 0.0 | 1.6 | 0.00 | 0.03 | 0.03 | 70 | 1009.5 |
| 20260504000025 | 25 | 203 | 0.0 | 1.6 | 0.00 | 0.03 | 0.03 | 70 | 1009.5 |
| 20260503235926 | 25 | 203 | 0.0 | 1.6 | 0.00 | 0.03 | 0.03 | 70 | 1009.6 |
| 20260503235822 | 25 | 203 | 0.0 | 1.6 | 0.00 | 0.03 | 0.03 | 70 | 1009.5 |
| 20260503235722 | 25 | 203 | 0.0 | 1.6 | 0.00 | 0.03 | 0.03 | 70 | 1009.7 |
| 20260503235624 | 25 | 203 | 0.0 | 3.2 | 0.00 | 0.03 | 0.03 | 70 | 1009.5 |
| 20260503235523 | 25 | 203 | 0.0 | 3.2 | 0.00 | 0.03 | 0.03 | 70 | 1009.6 |
| 20260503235422 | 25 | 203 | 0.0 | 3.2 | 0.00 | 0.03 | 0.03 | 70 | 1009.6 |
| 20260503235323 | 25 | 203 | 0.0 | 3.2 | 0.00 | 0.03 | 0.03 | 69 | 1009.7 |
| 20260503235224 | 25 | 203 | 0.0 | 3.2 | 0.00 | 0.03 | 0.03 | 69 | 1009.6 |
| 20260503235123 | 25 | 203 | 0.0 | 3.2 | 0.00 | 0.03 | 0.03 | 69 | 1009.7 |
| 20260503235024 | 25 | 203 | 0.0 | 3.2 | 0.00 | 0.03 | 0.03 | 69 | 1009.6 |
| 20260503234923 | 25 | 203 | 1.6 | 3.2 | 0.00 | 0.03 | 0.03 | 69 | 1009.7 |
| 20260503234824 | 25 | 183 | 1.6 | 3.2 | 0.00 | 0.03 | 0.03 | 69 | 1009.7 |
| 20260503234723 | 25 | 185 | 1.6 | 3.2 | 0.00 | 0.03 | 0.03 | 69 | 1009.7 |
| 20260503234623 | 25 | 168 | 0.0 | 3.2 | 0.00 | 0.03 | 0.03 | 69 | 1009.7 |
| 20260503234522 | 25 | 154 | 0.0 | 1.6 | 0.00 | 0.03 | 0.03 | 69 | 1009.7 |
| 20260503234423 | 25 | 154 | 0.0 | 1.6 | 0.00 | 0.03 | 0.03 | 69 | 1009.7 |
| 20260503234323 | 25 | 154 | 0.0 | 3.2 | 0.00 | 0.03 | 0.03 | 69 | 1009.6 |
| 20260503234232 | 25 | 172 | 0.0 | 3.2 | 0.00 | 0.03 | 0.03 | 69 | 1009.6 |
| 20260503234123 | 25 | 233 | 0.0 | 3.2 | 0.00 | 0.03 | 0.03 | 69 | 1009.6 |
| 20260503234024 | 25 | 233 | 0.0 | 3.2 | 0.00 | 0.03 | 0.03 | 69 | 1009.7 |
| 20260503233922 | 25 | 233 | 0.0 | 3.2 | 0.00 | 0.03 | 0.03 | 69 | 1009.6 |
| 20260503233822 | 25 | 233 | 0.0 | 3.2 | 0.00 | 0.03 | 0.03 | 69 | 1009.6 |
| 20260503233724 | 25 | 233 | 0.0 | 3.2 | 0.00 | 0.03 | 0.03 | 69 | 1009.6 |
| 20260503233623 | 25 | 233 | 0.0 | 3.2 | 0.00 | 0.03 | 0.03 | 70 | 1009.6 |
| 20260503233523 | 25 | 234 | 1.6 | 3.2 | 0.00 | 0.03 | 0.03 | 70 | 1009.5 |
| 20260503233423 | 25 | 234 | 0.0 | 3.2 | 0.00 | 0.03 | 0.03 | 70 | 1009.6 |
| 20260503233326 | 25 | 182 | 0.0 | 0.0 | 0.00 | 0.03 | 0.03 | 70 | 1009.6 |
| 20260503233222 | 25 | 180 | 0.0 | 0.0 | 0.00 | 0.03 | 0.03 | 70 | 1009.6 |
| 20260503233122 | 25 | 180 | 0.0 | 0.0 | 0.00 | 0.03 | 0.03 | 69 | 1009.6 |
| 20260503233022 | 25 | 180 | 0.0 | 0.0 | 0.00 | 0.03 | 0.03 | 69 | 1009.5 |
| 20260503232923 | 25 | 180 | 0.0 | 0.0 | 0.00 | 0.03 | 0.03 | 70 | 1009.5 |
| 20260503232823 | 25 | 180 | 0.0 | 0.0 | 0.00 | 0.03 | 0.03 | 70 | 1009.6 |
| 20260503232722 | 25 | 180 | 0.0 | 0.0 | 0.00 | 0.03 | 0.03 | 70 | 1009.6 |
| 20260503232622 | 25 | 180 | 0.0 | 0.0 | 0.00 | 0.03 | 0.03 | 70 | 1009.7 |
| 20260503232522 | 25 | 180 | 0.0 | 0.0 | 0.00 | 0.03 | 0.03 | 70 | 1009.6 |
| 20260503232422 | 25 | 180 | 0.0 | 0.0 | 0.00 | 0.03 | 0.03 | 70 | 1009.7 |
| 20260503232323 | 25 | 180 | 0.0 | 0.0 | 0.00 | 0.03 | 0.03 | 70 | 1009.7 |
| 20260503232222 | 25 | 178 | 0.0 | 0.0 | 0.00 | 0.03 | 0.03 | 70 | 1009.6 |
| 20260503232122 | 25 | 202 | 0.0 | 0.0 | 0.00 | 0.03 | 0.03 | 70 | 1009.7 |
| 20260503232022 | 25 | 200 | 0.0 | 0.0 | 0.00 | 0.03 | 0.03 | 70 | 1009.7 |
| 20260503231922 | 25 | 200 | 0.0 | 0.0 | 0.00 | 0.03 | 0.03 | 70 | 1009.6 |
| 20260503231823 | 25 | 200 | 0.0 | 0.0 | 0.00 | 0.03 | 0.03 | 70 | 1009.6 |
| 20260503231723 | 25 | 202 | 0.0 | 0.0 | 0.00 | 0.03 | 0.03 | 70 | 1009.6 |
| 20260503231621 | 25 | 202 | 0.0 | 0.0 | 0.00 | 0.03 | 0.03 | 70 | 1009.7 |
| 20260503231522 | 25 | 202 | 0.0 | 0.0 | 0.00 | 0.03 | 0.03 | 70 | 1009.7 |
| 20260503231423 | 25 | 202 | 0.0 | 0.0 | 0.00 | 0.03 | 0.03 | 70 | 1009.7 |
| 20260503231322 | 25 | 202 | 0.0 | 0.0 | 0.00 | 0.03 | 0.03 | 70 | 1009.7 |
| 20260503231221 | 25 | 202 | 0.0 | 0.0 | 0.00 | 0.03 | 0.03 | 70 | 1009.7 |
| 20260503231122 | 25 | 202 | 0.0 | 0.0 | 0.00 | 0.03 | 0.03 | 70 | 1009.8 |
| 20260503231022 | 25 | 202 | 0.0 | 0.0 | 0.00 | 0.03 | 0.03 | 69 | 1009.8 |
| 20260503230922 | 26 | 202 | 0.0 | 0.0 | 0.00 | 0.03 | 0.03 | 69 | 1009.8 |
| 20260503230823 | 26 | 195 | 0.0 | 0.0 | 0.00 | 0.03 | 0.03 | 70 | 1009.9 |
| 20260503230722 | 26 | 182 | 0.0 | 0.0 | 0.00 | 0.03 | 0.03 | 70 | 1009.8 |
| 20260503230621 | 26 | 182 | 0.0 | 0.0 | 0.00 | 0.03 | 0.03 | 69 | 1009.8 |
| 20260503230521 | 26 | 182 | 0.0 | 0.0 | 0.00 | 0.03 | 0.03 | 69 | 1009.8 |
| 20260503230424 | 26 | 182 | 0.0 | 0.0 | 0.00 | 0.03 | 0.03 | 69 | 1009.8 |
| 20260503230324 | 26 | 182 | 0.0 | 0.0 | 0.00 | 0.03 | 0.03 | 69 | 1009.8 |
| 20260503230224 | 26 | 182 | 0.0 | 0.0 | 0.00 | 0.03 | 0.03 | 69 | 1009.8 |
| 20260503230122 | 26 | 182 | 0.0 | 0.0 | 0.00 | 0.03 | 0.03 | 69 | 1009.8 |
| 20260503230022 | 26 | 128 | 0.0 | 0.0 | 0.00 | 0.03 | 0.03 | 69 | 1009.8 |
| 20260503225925 | 26 | 124 | 0.0 | 0.0 | 0.00 | 0.03 | 0.03 | 69 | 1009.8 |
| 20260503225822 | 26 | 124 | 0.0 | 0.0 | 0.00 | 0.03 | 0.03 | 68 | 1009.7 |
| 20260503225721 | 26 | 124 | 0.0 | 0.0 | 0.00 | 0.03 | 0.03 | 68 | 1009.7 |
| 20260503225622 | 26 | 124 | 0.0 | 0.0 | 0.00 | 0.03 | 0.03 | 68 | 1009.7 |
| 20260503225520 | 26 | 124 | 0.0 | 0.0 | 0.00 | 0.03 | 0.03 | 68 | 1009.8 |
| 20260503225416 | 26 | 124 | 0.0 | 0.0 | 0.00 | 0.03 | 0.03 | 68 | 1009.8 |
| 20260503225314 | 26 | 124 | 0.0 | 0.0 | 0.00 | 0.03 | 0.03 | 68 | 1009.8 |
| 20260503225214 | 26 | 123 | 0.0 | 0.0 | 0.00 | 0.03 | 0.03 | 68 | 1009.8 |
| 20260503225113 | 26 | 123 | 0.0 | 0.0 | 0.00 | 0.03 | 0.03 | 68 | 1009.8 |
| 20260503225009 | 26 | 120 | 0.0 | 0.0 | 0.00 | 0.03 | 0.03 | 68 | 1009.8 |
| 20260503224903 | 26 | 120 | 0.0 | 0.0 | 0.00 | 0.03 | 0.03 | 68 | 1009.8 |
| 20260503224803 | 26 | 116 | 0.0 | 0.0 | 0.00 | 0.03 | 0.03 | 68 | 1009.8 |
| 20260503224703 | 26 | 114 | 0.0 | 0.0 | 0.00 | 0.03 | 0.03 | 67 | 1009.8 |
| 20260503224602 | 26 | 114 | 0.0 | 0.0 | 0.00 | 0.03 | 0.03 | 67 | 1009.9 |
| 20260503224503 | 26 | 114 | 0.0 | 0.0 | 0.00 | 0.03 | 0.03 | 67 | 1010.0 |
| 20260503224404 | 26 | 113 | 0.0 | 0.0 | 0.00 | 0.03 | 0.03 | 67 | 1009.9 |
| 20260503224302 | 26 | 113 | 0.0 | 0.0 | 0.00 | 0.03 | 0.03 | 67 | 1010.0 |
| 20260503224203 | 26 | 113 | 0.0 | 0.0 | 0.00 | 0.03 | 0.03 | 67 | 1010.0 |
| 20260503224103 | 26 | 240 | 0.0 | 0.0 | 0.00 | 0.03 | 0.03 | 67 | 1010.0 |
| 20260503224002 | 26 | 238 | 0.0 | 0.0 | 0.00 | 0.03 | 0.03 | 67 | 1010.1 |
| 20260503223904 | 26 | 238 | 0.0 | 0.0 | 0.00 | 0.03 | 0.03 | 67 | 1010.1 |
| 20260503223803 | 26 | 238 | 0.0 | 0.0 | 0.00 | 0.03 | 0.03 | 67 | 1010.1 |
| 20260503223703 | 26 | 238 | 0.0 | 0.0 | 0.00 | 0.03 | 0.03 | 67 | 1010.1 |
| 20260503223605 | 26 | 237 | 0.0 | 1.6 | 0.00 | 0.03 | 0.03 | 67 | 1010.0 |
| 20260503223505 | 26 | 237 | 0.0 | 1.6 | 0.00 | 0.03 | 0.03 | 67 | 1010.0 |
| 20260503223403 | 26 | 172 | 0.0 | 1.6 | 0.00 | 0.03 | 0.03 | 68 | 1010.0 |
| 20260503223303 | 26 | 172 | 0.0 | 1.6 | 0.00 | 0.03 | 0.03 | 67 | 1010.0 |
| 20260503223201 | 26 | 172 | 0.0 | 1.6 | 0.00 | 0.03 | 0.03 | 67 | 1010.0 |
| 20260503223102 | 26 | 172 | 0.0 | 1.6 | 0.00 | 0.03 | 0.03 | 65 | 1010.1 |
| 20260503223002 | 26 | 172 | 0.0 | 1.6 | 0.00 | 0.03 | 0.03 | 65 | 1010.0 |
| 20260503222905 | 26 | 172 | 0.0 | 1.6 | 0.00 | 0.03 | 0.03 | 65 | 1010.0 |
| 20260503222804 | 26 | 171 | 0.0 | 1.6 | 0.00 | 0.03 | 0.03 | 65 | 1010.0 |
| 20260503222702 | 26 | 171 | 0.0 | 1.6 | 0.00 | 0.03 | 0.03 | 66 | 1010.0 |
| 20260503222604 | 26 | 168 | 0.0 | 3.2 | 0.00 | 0.03 | 0.03 | 67 | 1010.1 |
| 20260503222502 | 26 | 162 | 0.0 | 3.2 | 0.00 | 0.03 | 0.03 | 67 | 1010.0 |
| 20260503222403 | 26 | 173 | 0.0 | 3.2 | 0.00 | 0.03 | 0.03 | 66 | 1010.1 |
| 20260503222304 | 26 | 228 | 0.0 | 3.2 | 0.00 | 0.03 | 0.03 | 66 | 1010.2 |
| 20260503222204 | 26 | 230 | 0.0 | 3.2 | 0.00 | 0.03 | 0.03 | 66 | 1010.2 |
| 20260503222104 | 26 | 230 | 0.0 | 3.2 | 0.00 | 0.03 | 0.03 | 66 | 1010.2 |
| 20260503222004 | 26 | 233 | 0.0 | 3.2 | 0.00 | 0.03 | 0.03 | 66 | 1010.3 |
| 20260503221904 | 26 | 259 | 0.0 | 3.2 | 0.00 | 0.03 | 0.03 | 67 | 1010.3 |
| 20260503221803 | 26 | 259 | 0.0 | 3.2 | 0.00 | 0.03 | 0.03 | 67 | 1010.2 |
| 20260503221703 | 26 | 259 | 0.0 | 3.2 | 0.00 | 0.03 | 0.03 | 67 | 1010.2 |
| 20260503221604 | 26 | 278 | 0.0 | 3.2 | 0.00 | 0.03 | 0.03 | 67 | 1010.3 |
| 20260503221505 | 26 | 237 | 0.0 | 0.0 | 0.00 | 0.03 | 0.03 | 67 | 1010.2 |
| 20260503221403 | 26 | 240 | 0.0 | 0.0 | 0.00 | 0.03 | 0.03 | 67 | 1010.3 |
| 20260503221303 | 26 | 241 | 0.0 | 0.0 | 0.00 | 0.03 | 0.03 | 67 | 1010.3 |
| 20260503221203 | 26 | 241 | 0.0 | 0.0 | 0.00 | 0.03 | 0.03 | 66 | 1010.3 |
| 20260503221102 | 26 | 241 | 0.0 | 0.0 | 0.00 | 0.03 | 0.03 | 66 | 1010.3 |
| 20260503221004 | 26 | 241 | 0.0 | 0.0 | 0.00 | 0.03 | 0.03 | 66 | 1010.3 |
| 20260503220904 | 26 | 241 | 0.0 | 1.6 | 0.00 | 0.03 | 0.03 | 67 | 1010.4 |
| 20260503220835 | 26 | 241 | 0.0 | 1.6 | 0.00 | 0.03 | 0.03 | 67 | 1010.4 |
| 20260503220803 | 26 | 241 | 0.0 | 1.6 | 0.00 | 0.03 | 0.03 | 67 | 1010.4 |
| 20260503220705 | 26 | 241 | 0.0 | 1.6 | 0.00 | 0.03 | 0.03 | 67 | 1010.4 |
| 20260503220604 | 26 | 241 | 0.0 | 1.6 | 0.00 | 0.03 | 0.03 | 67 | 1010.4 |
| 20260503220503 | 26 | 241 | 0.0 | 4.8 | 0.00 | 0.03 | 0.03 | 66 | 1010.5 |
| 20260503220403 | 26 | 241 | 0.0 | 4.8 | 0.00 | 0.03 | 0.03 | 66 | 1010.5 |
| 20260503220302 | 26 | 243 | 0.0 | 4.8 | 0.00 | 0.03 | 0.03 | 66 | 1010.5 |
| 20260503220202 | 26 | 243 | 0.0 | 4.8 | 0.00 | 0.03 | 0.03 | 66 | 1010.6 |
| 20260503220104 | 26 | 243 | 0.0 | 4.8 | 0.00 | 0.03 | 0.03 | 66 | 1010.5 |
| 20260503220002 | 26 | 243 | 0.0 | 4.8 | 0.00 | 0.03 | 0.03 | 66 | 1010.5 |
| 20260503215902 | 26 | 240 | 0.0 | 4.8 | 0.00 | 0.03 | 0.03 | 66 | 1010.5 |
| 20260503215804 | 26 | 237 | 1.6 | 4.8 | 0.00 | 0.03 | 0.03 | 66 | 1010.6 |
| 20260503215703 | 26 | 234 | 1.6 | 4.8 | 0.00 | 0.03 | 0.03 | 66 | 1010.6 |
| 20260503215603 | 26 | 234 | 1.6 | 4.8 | 0.00 | 0.03 | 0.03 | 66 | 1010.5 |
| 20260503215506 | 26 | 234 | 1.6 | 3.2 | 0.00 | 0.03 | 0.03 | 66 | 1010.5 |
| 20260503215403 | 26 | 168 | 1.6 | 3.2 | 0.00 | 0.03 | 0.03 | 66 | 1010.5 |
| 20260503215304 | 26 | 268 | 1.6 | 3.2 | 0.00 | 0.03 | 0.03 | 66 | 1010.4 |
| 20260503215203 | 26 | 268 | 1.6 | 3.2 | 0.00 | 0.03 | 0.03 | 66 | 1010.5 |
| 20260503215103 | 26 | 264 | 0.0 | 3.2 | 0.00 | 0.03 | 0.03 | 66 | 1010.5 |
| 20260503215003 | 26 | 269 | 0.0 | 3.2 | 0.00 | 0.03 | 0.03 | 65 | 1010.5 |
| 20260503214902 | 26 | 252 | 0.0 | 3.2 | 0.00 | 0.03 | 0.03 | 65 | 1010.5 |
| 20260503214802 | 26 | 248 | 0.0 | 3.2 | 0.00 | 0.03 | 0.03 | 65 | 1010.4 |
| 20260503214702 | 26 | 248 | 0.0 | 3.2 | 0.00 | 0.03 | 0.03 | 65 | 1010.5 |
| 20260503214602 | 26 | 248 | 0.0 | 3.2 | 0.00 | 0.03 | 0.03 | 65 | 1010.4 |
| 20260503214503 | 26 | 248 | 0.0 | 3.2 | 0.00 | 0.03 | 0.03 | 63 | 1010.4 |
| 20260503214403 | 26 | 250 | 0.0 | 3.2 | 0.00 | 0.03 | 0.03 | 63 | 1010.5 |
| 20260503214303 | 26 | 252 | 0.0 | 3.2 | 0.00 | 0.03 | 0.03 | 63 | 1010.4 |
| 20260503214205 | 26 | 252 | 0.0 | 3.2 | 0.00 | 0.03 | 0.03 | 63 | 1010.4 |
| 20260503214104 | 26 | 252 | 0.0 | 3.2 | 0.00 | 0.03 | 0.03 | 64 | 1010.4 |
| 20260503214003 | 26 | 252 | 0.0 | 3.2 | 0.00 | 0.03 | 0.03 | 66 | 1010.4 |
| 20260503213903 | 26 | 252 | 0.0 | 3.2 | 0.00 | 0.03 | 0.03 | 66 | 1010.4 |
| 20260503213803 | 26 | 252 | 0.0 | 3.2 | 0.00 | 0.03 | 0.03 | 66 | 1010.4 |
| 20260503213702 | 26 | 252 | 0.0 | 3.2 | 0.00 | 0.03 | 0.03 | 66 | 1010.4 |
| 20260503213604 | 26 | 252 | 0.0 | 3.2 | 0.00 | 0.03 | 0.03 | 67 | 1010.4 |
| 20260503213502 | 26 | 252 | 0.0 | 3.2 | 0.00 | 0.03 | 0.03 | 67 | 1010.5 |
| 20260503213403 | 26 | 252 | 1.6 | 3.2 | 0.00 | 0.03 | 0.03 | 67 | 1010.5 |
| 20260503213301 | 26 | 252 | 1.6 | 3.2 | 0.00 | 0.03 | 0.03 | 67 | 1010.6 |
| 20260503213202 | 27 | 252 | 0.0 | 3.2 | 0.00 | 0.03 | 0.03 | 67 | 1010.6 |
| 20260503213104 | 26 | 252 | 0.0 | 3.2 | 0.00 | 0.03 | 0.03 | 67 | 1010.7 |
| 20260503213006 | 27 | 252 | 1.6 | 3.2 | 0.00 | 0.03 | 0.03 | 67 | 1010.7 |
| 20260503212903 | 27 | 252 | 1.6 | 3.2 | 0.00 | 0.03 | 0.03 | 68 | 1010.8 |
| 20260503212802 | 27 | 286 | 0.0 | 3.2 | 0.00 | 0.03 | 0.03 | 67 | 1010.8 |
| 20260503212703 | 27 | 286 | 0.0 | 3.2 | 0.00 | 0.03 | 0.03 | 67 | 1010.8 |
| 20260503212556 | 27 | 209 | 0.0 | 3.2 | 0.00 | 0.03 | 0.03 | 66 | 1010.8 |
| 20260503212454 | 27 | 248 | 0.0 | 3.2 | 0.00 | 0.03 | 0.03 | 66 | 1010.9 |
| 20260503212350 | 27 | 248 | 0.0 | 3.2 | 0.00 | 0.03 | 0.03 | 66 | 1011.0 |
| 20260503212247 | 27 | 157 | 0.0 | 1.6 | 0.00 | 0.03 | 0.03 | 66 | 1011.0 |
| 20260503212147 | 27 | 157 | 0.0 | 1.6 | 0.00 | 0.03 | 0.03 | 65 | 1010.9 |
| 20260503212044 | 27 | 157 | 0.0 | 1.6 | 0.00 | 0.03 | 0.03 | 65 | 1011.0 |
| 20260503211943 | 27 | 157 | 0.0 | 1.6 | 0.00 | 0.03 | 0.03 | 65 | 1011.0 |
| 20260503211841 | 27 | 157 | 0.0 | 4.8 | 0.00 | 0.03 | 0.03 | 65 | 1011.0 |
| 20260503211736 | 27 | 203 | 0.0 | 4.8 | 0.00 | 0.03 | 0.03 | 65 | 1011.0 |
| 20260503211636 | 27 | 203 | 0.0 | 4.8 | 0.00 | 0.03 | 0.03 | 66 | 1011.1 |
| 20260503211532 | 27 | 186 | 0.0 | 4.8 | 0.00 | 0.03 | 0.03 | 66 | 1011.2 |
| 20260503211433 | 27 | 183 | 0.0 | 4.8 | 0.00 | 0.03 | 0.03 | 65 | 1011.2 |
| 20260503211331 | 27 | 171 | 0.0 | 4.8 | 0.00 | 0.03 | 0.03 | 65 | 1011.2 |
| 20260503211233 | 27 | 171 | 0.0 | 4.8 | 0.00 | 0.03 | 0.03 | 63 | 1011.1 |
| 20260503211132 | 27 | 171 | 0.0 | 4.8 | 0.00 | 0.03 | 0.03 | 63 | 1011.2 |
| 20260503211033 | 27 | 171 | 1.6 | 4.8 | 0.00 | 0.03 | 0.03 | 63 | 1011.2 |
| 20260503210931 | 27 | 171 | 1.6 | 4.8 | 0.00 | 0.03 | 0.03 | 63 | 1011.1 |
| 20260503210832 | 27 | 166 | 1.6 | 3.2 | 0.00 | 0.03 | 0.03 | 63 | 1011.1 |
| 20260503210733 | 27 | 144 | 1.6 | 3.2 | 0.00 | 0.03 | 0.03 | 63 | 1011.2 |
| 20260503210634 | 27 | 157 | 0.0 | 3.2 | 0.00 | 0.03 | 0.03 | 63 | 1011.1 |
| 20260503210532 | 27 | 203 | 0.0 | 3.2 | 0.00 | 0.03 | 0.03 | 63 | 1011.2 |
| 20260503210432 | 27 | 203 | 1.6 | 3.2 | 0.00 | 0.03 | 0.03 | 64 | 1011.2 |
| 20260503210332 | 27 | 200 | 1.6 | 3.2 | 0.00 | 0.03 | 0.03 | 65 | 1011.3 |
| 20260503210230 | 27 | 192 | 0.0 | 3.2 | 0.00 | 0.03 | 0.03 | 65 | 1011.3 |
| 20260503210123 | 27 | 292 | 0.0 | 0.0 | 0.00 | 0.03 | 0.03 | 65 | 1011.2 |
| 20260503210019 | 27 | 282 | 0.0 | 0.0 | 0.00 | 0.03 | 0.03 | 65 | 1011.2 |
| 20260503205921 | 27 | 282 | 0.0 | 0.0 | 0.00 | 0.03 | 0.03 | 65 | 1011.3 |
| 20260503205820 | 27 | 282 | 0.0 | 0.0 | 0.00 | 0.03 | 0.03 | 65 | 1011.2 |
| 20260503205718 | 27 | 282 | 0.0 | 0.0 | 0.00 | 0.03 | 0.03 | 67 | 1011.2 |
| 20260503205619 | 27 | 282 | 0.0 | 0.0 | 0.00 | 0.03 | 0.03 | 67 | 1011.3 |
| 20260503205519 | 27 | 99 | 0.0 | 0.0 | 0.00 | 0.03 | 0.03 | 67 | 1011.3 |
| 20260503205420 | 27 | 327 | 0.0 | 0.0 | 0.00 | 0.03 | 0.03 | 67 | 1011.3 |
| 20260503205319 | 27 | 310 | 0.0 | 0.0 | 0.00 | 0.03 | 0.03 | 66 | 1011.3 |
| 20260503205220 | 27 | 309 | 0.0 | 0.0 | 0.00 | 0.03 | 0.03 | 66 | 1011.3 |
| 20260503205118 | 27 | 309 | 0.0 | 0.0 | 0.00 | 0.03 | 0.03 | 66 | 1011.3 |
| 20260503205020 | 27 | 309 | 0.0 | 0.0 | 0.00 | 0.03 | 0.03 | 66 | 1011.4 |
| 20260503204919 | 27 | 196 | 0.0 | 0.0 | 0.00 | 0.03 | 0.03 | 66 | 1011.3 |
| 20260503204813 | 27 | 195 | 0.0 | 0.0 | 0.00 | 0.03 | 0.03 | 66 | 1011.4 |
| 20260503204714 | 27 | 209 | 0.0 | 0.0 | 0.00 | 0.03 | 0.03 | 66 | 1011.4 |
| 20260503204611 | 27 | 209 | 0.0 | 0.0 | 0.00 | 0.03 | 0.03 | 67 | 1011.4 |
| 20260503204504 | 27 | 207 | 0.0 | 0.0 | 0.00 | 0.03 | 0.03 | 67 | 1011.4 |
| 20260503204401 | 27 | 209 | 0.0 | 0.0 | 0.00 | 0.03 | 0.03 | 65 | 1011.4 |
| 20260503204302 | 27 | 210 | 0.0 | 0.0 | 0.00 | 0.03 | 0.03 | 65 | 1011.5 |
| 20260503204204 | 27 | 209 | 0.0 | 0.0 | 0.00 | 0.03 | 0.03 | 65 | 1011.5 |
| 20260503204103 | 27 | 209 | 0.0 | 0.0 | 0.00 | 0.03 | 0.03 | 65 | 1011.5 |
| 20260503204004 | 27 | 209 | 0.0 | 0.0 | 0.00 | 0.03 | 0.03 | 65 | 1011.6 |
| 20260503203905 | 27 | 209 | 0.0 | 0.0 | 0.00 | 0.03 | 0.03 | 65 | 1011.6 |
| 20260503203802 | 27 | 207 | 0.0 | 0.0 | 0.00 | 0.03 | 0.03 | 65 | 1011.5 |
| 20260503203702 | 27 | 207 | 0.0 | 0.0 | 0.00 | 0.03 | 0.03 | 66 | 1011.6 |
| 20260503203603 | 27 | 151 | 0.0 | 0.0 | 0.00 | 0.03 | 0.03 | 65 | 1011.6 |
| 20260503203455 | 27 | 149 | 0.0 | 0.0 | 0.00 | 0.03 | 0.03 | 65 | 1011.7 |
| 20260503203350 | 27 | 149 | 0.0 | 0.0 | 0.00 | 0.03 | 0.03 | 65 | 1011.7 |
| 20260503203246 | 27 | 151 | 0.0 | 0.0 | 0.00 | 0.03 | 0.03 | 64 | 1011.8 |
| 20260503203130 | 27 | 148 | 0.0 | 0.0 | 0.00 | 0.03 | 0.03 | 64 | 1011.8 |
| 20260503203031 | 27 | 162 | 0.0 | 0.0 | 0.00 | 0.03 | 0.03 | 66 | 1011.8 |
| 20260503202933 | 27 | 168 | 0.0 | 0.0 | 0.00 | 0.03 | 0.03 | 66 | 1011.9 |
| 20260503202832 | 27 | 165 | 0.0 | 0.0 | 0.00 | 0.03 | 0.03 | 66 | 1011.9 |
| 20260503202732 | 27 | 241 | 0.0 | 0.0 | 0.00 | 0.03 | 0.03 | 66 | 1011.8 |
| 20260503202632 | 27 | 214 | 0.0 | 0.0 | 0.00 | 0.03 | 0.03 | 66 | 1011.8 |
| 20260503202528 | 27 | 214 | 0.0 | 0.0 | 0.00 | 0.03 | 0.03 | 66 | 1011.8 |
| 20260503202423 | 27 | 214 | 0.0 | 0.0 | 0.00 | 0.03 | 0.03 | 67 | 1011.8 |
| 20260503202319 | 27 | 354 | 0.0 | 0.0 | 0.00 | 0.03 | 0.03 | 68 | 1011.9 |
| 20260503202218 | 27 | 114 | 0.0 | 0.0 | 0.00 | 0.03 | 0.03 | 67 | 1011.8 |
| 20260503202119 | 27 | 114 | 0.0 | 0.0 | 0.00 | 0.03 | 0.03 | 67 | 1011.9 |
| 20260503202019 | 27 | 114 | 0.0 | 0.0 | 0.00 | 0.03 | 0.03 | 66 | 1011.8 |
| 20260503201918 | 27 | 114 | 0.0 | 0.0 | 0.00 | 0.03 | 0.03 | 66 | 1011.9 |
| 20260503201819 | 27 | 114 | 0.0 | 0.0 | 0.00 | 0.03 | 0.03 | 66 | 1011.9 |
| 20260503201719 | 27 | 114 | 0.0 | 0.0 | 0.00 | 0.03 | 0.03 | 66 | 1011.9 |
| 20260503201617 | 27 | 76 | 0.0 | 0.0 | 0.00 | 0.03 | 0.03 | 66 | 1011.9 |
| 20260503201518 | 27 | 76 | 0.0 | 0.0 | 0.00 | 0.03 | 0.03 | 66 | 1012.0 |
| 20260503201419 | 27 | 76 | 0.0 | 0.0 | 0.00 | 0.03 | 0.03 | 66 | 1011.9 |
| 20260503201317 | 27 | 76 | 0.0 | 0.0 | 0.00 | 0.03 | 0.03 | 66 | 1011.9 |
| 20260503201218 | 27 | 76 | 0.0 | 0.0 | 0.00 | 0.03 | 0.03 | 66 | 1012.0 |
| 20260503201117 | 27 | 76 | 0.0 | 0.0 | 0.00 | 0.03 | 0.03 | 66 | 1012.1 |
| 20260503201019 | 27 | 76 | 0.0 | 0.0 | 0.00 | 0.03 | 0.03 | 66 | 1012.0 |
| 20260503200918 | 27 | 78 | 0.0 | 0.0 | 0.00 | 0.03 | 0.03 | 66 | 1012.1 |
| 20260503200821 | 27 | 76 | 0.0 | 0.0 | 0.00 | 0.03 | 0.03 | 66 | 1012.1 |
| 20260503200717 | 27 | 351 | 0.0 | 0.0 | 0.00 | 0.03 | 0.03 | 66 | 1012.1 |
| 20260503200620 | 27 | 336 | 0.0 | 0.0 | 0.00 | 0.03 | 0.03 | 66 | 1012.1 |
| 20260503200520 | 27 | 334 | 0.0 | 0.0 | 0.00 | 0.03 | 0.03 | 66 | 1012.0 |
| 20260503200418 | 27 | 336 | 0.0 | 0.0 | 0.00 | 0.03 | 0.03 | 66 | 1012.1 |
| 20260503200319 | 27 | 343 | 0.0 | 0.0 | 0.00 | 0.03 | 0.03 | 66 | 1012.1 |
| 20260503200215 | 27 | 343 | 0.0 | 0.0 | 0.00 | 0.03 | 0.03 | 66 | 1012.2 |
| 20260503200110 | 27 | 343 | 0.0 | 0.0 | 0.00 | 0.03 | 0.03 | 65 | 1012.2 |
| 20260503200005 | 27 | 268 | 0.0 | 0.0 | 0.00 | 0.03 | 0.03 | 65 | 1012.3 |
| 20260503195904 | 27 | 248 | 0.0 | 0.0 | 0.00 | 0.03 | 0.03 | 66 | 1012.4 |
| 20260503195803 | 27 | 247 | 0.0 | 0.0 | 0.00 | 0.03 | 0.03 | 66 | 1012.4 |
| 20260503195704 | 27 | 245 | 0.0 | 0.0 | 0.00 | 0.03 | 0.03 | 66 | 1012.3 |
| 20260503195602 | 27 | 247 | 0.0 | 0.0 | 0.00 | 0.03 | 0.03 | 66 | 1012.4 |
| 20260503195502 | 27 | 248 | 0.0 | 0.0 | 0.00 | 0.03 | 0.03 | 68 | 1012.4 |
| 20260503195401 | 27 | 247 | 0.0 | 0.0 | 0.00 | 0.03 | 0.03 | 68 | 1012.3 |
| 20260503195256 | 27 | 250 | 0.0 | 0.0 | 0.00 | 0.03 | 0.03 | 69 | 1012.4 |
| 20260503195152 | 27 | 248 | 0.0 | 0.0 | 0.00 | 0.03 | 0.03 | 69 | 1012.4 |
| 20260503195056 | 27 | 250 | 0.0 | 0.0 | 0.00 | 0.03 | 0.03 | 66 | 1012.4 |
| 20260503194946 | 26 | 251 | 0.0 | 0.0 | 0.00 | 0.03 | 0.03 | 67 | 1012.4 |
| 20260503194844 | 26 | 251 | 0.0 | 0.0 | 0.00 | 0.03 | 0.03 | 67 | 1012.5 |
| 20260503194742 | 26 | 288 | 0.0 | 0.0 | 0.00 | 0.03 | 0.03 | 67 | 1012.5 |
| 20260503194638 | 26 | 261 | 0.0 | 0.0 | 0.00 | 0.03 | 0.03 | 68 | 1012.5 |
| 20260503194532 | 26 | 262 | 0.0 | 0.0 | 0.00 | 0.03 | 0.03 | 68 | 1012.5 |
| 20260503194431 | 26 | 158 | 0.0 | 0.0 | 0.00 | 0.03 | 0.03 | 67 | 1012.5 |
| 20260503194332 | 26 | 151 | 0.0 | 0.0 | 0.00 | 0.03 | 0.03 | 67 | 1012.5 |
| 20260503194232 | 26 | 137 | 0.0 | 0.0 | 0.00 | 0.03 | 0.03 | 66 | 1012.5 |
| 20260503194131 | 26 | 338 | 0.0 | 0.0 | 0.00 | 0.03 | 0.03 | 66 | 1012.5 |
| 20260503194032 | 26 | 305 | 0.0 | 0.0 | 0.00 | 0.03 | 0.03 | 68 | 1012.5 |
| 20260503193931 | 26 | 306 | 0.0 | 0.0 | 0.00 | 0.03 | 0.03 | 67 | 1012.6 |
| 20260503193819 | 26 | 306 | 0.0 | 0.0 | 0.00 | 0.03 | 0.03 | 67 | 1012.6 |
| 20260503193718 | 26 | 306 | 0.0 | 0.0 | 0.00 | 0.03 | 0.03 | 68 | 1012.6 |
| 20260503193618 | 26 | 223 | 0.0 | 0.0 | 0.00 | 0.03 | 0.03 | 68 | 1012.6 |
| 20260503193518 | 26 | 223 | 0.0 | 0.0 | 0.00 | 0.03 | 0.03 | 68 | 1012.6 |
| 20260503193416 | 26 | 223 | 0.0 | 0.0 | 0.00 | 0.03 | 0.03 | 68 | 1012.7 |
| 20260503193317 | 26 | 223 | 0.0 | 0.0 | 0.00 | 0.03 | 0.03 | 68 | 1012.6 |
| 20260503193217 | 27 | 223 | 0.0 | 0.0 | 0.00 | 0.03 | 0.03 | 67 | 1012.7 |
| 20260503193116 | 27 | 223 | 0.0 | 0.0 | 0.00 | 0.03 | 0.03 | 67 | 1012.7 |
| 20260503193017 | 27 | 223 | 0.0 | 0.0 | 0.00 | 0.03 | 0.03 | 67 | 1012.7 |
| 20260503192917 | 27 | 223 | 0.0 | 0.0 | 0.00 | 0.03 | 0.03 | 67 | 1012.7 |
| 20260503192816 | 27 | 223 | 0.0 | 0.0 | 0.00 | 0.03 | 0.03 | 66 | 1012.8 |
| 20260503192716 | 27 | 223 | 0.0 | 0.0 | 0.00 | 0.03 | 0.03 | 65 | 1012.7 |